Time,TemperatureF,DewpointF,PressureIn,WindDirection,WindDirectionDegrees,WindSpeedMPH,WindSpeedGustMPH,Humidity,HourlyPrecipIn,Conditions,Clouds,dailyrainin,SoftwareType,DateUTC
2013-02-04 00:00:00,34.1,25.0,30.05,SE,137,3.0,8.0,69,0.00,,---,0.00,VWS V14.01,2013-02-04 06:00:00,
2013-02-04 00:02:00,34.2,25.1,30.05,ESE,118,5.0,7.0,69,0.00,,---,0.00,VWS V14.01,2013-02-04 06:02:00,
2013-02-04 00:04:00,34.2,25.1,30.05,ESE,113,6.0,7.0,69,0.00,,---,0.00,VWS V14.01,2013-02-04 06:04:00,
2013-02-04 00:07:00,34.2,25.1,30.05,SE,127,3.0,7.0,69,0.00,,---,0.00,VWS V14.01,2013-02-04 06:07:00,
2013-02-04 00:09:00,34.2,25.1,30.05,ESE,114,5.0,7.0,69,0.00,,---,0.00,VWS V14.01,2013-02-04 06:09:00,
2013-02-04 00:12:00,34.1,25.0,30.05,ESE,120,4.0,7.0,69,0.00,,---,0.00,VWS V14.01,2013-02-04 06:12:00,
2013-02-04 00:14:00,34.1,25.0,30.05,SE,135,3.0,7.0,69,0.00,,---,0.00,VWS V14.01,2013-02-04 06:14:00,
2013-02-04 00:17:00,34.1,25.0,30.05,ESE,120,3.0,7.0,69,0.00,,---,0.00,VWS V14.01,2013-02-04 06:17:00,
2013-02-04 00:18:00,34.1,25.0,30.05,SE,124,4.0,7.0,69,0.00,,---,0.00,VWS V14.01,2013-02-04 06:18:00,
2013-02-04 00:19:00,34.1,25.4,30.05,SE,127,5.0,7.0,70,0.00,,---,0.00,VWS V14.01,2013-02-04 06:19:00,
2013-02-04 00:23:00,34.1,25.4,30.05,SE,126,3.0,7.0,70,0.00,,---,0.00,VWS V14.01,2013-02-04 06:23:00,
2013-02-04 00:24:00,34.0,25.6,30.05,SE,128,7.0,7.0,71,0.00,,---,0.00,VWS V14.01,2013-02-04 06:24:00,
2013-02-04 00:25:00,34.0,25.6,30.05,SE,128,4.0,7.0,71,0.00,,---,0.00,VWS V14.01,2013-02-04 06:25:00,
2013-02-04 00:28:00,34.0,25.6,30.05,ESE,103,5.0,5.0,71,0.00,,---,0.00,VWS V14.01,2013-02-04 06:28:00,
2013-02-04 00:29:00,34.0,25.6,30.05,ESE,114,5.0,5.0,71,0.00,,---,0.00,VWS V14.01,2013-02-04 06:29:00,
2013-02-04 00:30:00,34.0,25.6,30.04,SE,134,4.0,5.0,71,0.00,,---,0.00,VWS V14.01,2013-02-04 06:30:00,
2013-02-04 00:33:00,34.0,25.6,30.04,ESE,122,2.0,6.0,71,0.00,,---,0.00,VWS V14.01,2013-02-04 06:33:00,
2013-02-04 00:34:00,34.0,25.6,30.04,ESE,122,4.0,6.0,71,0.00,,---,0.00,VWS V14.01,2013-02-04 06:34:00,
2013-02-04 00:35:00,33.9,25.5,30.04,ESE,110,4.0,7.0,71,0.00,,---,0.00,VWS V14.01,2013-02-04 06:35:00,
2013-02-04 00:38:00,33.9,25.5,30.04,ESE,117,3.0,7.0,71,0.00,,---,0.00,VWS V14.01,2013-02-04 06:38:00,
2013-02-04 00:39:00,33.9,25.5,30.04,ESE,116,4.0,7.0,71,0.00,,---,0.00,VWS V14.01,2013-02-04 06:39:00,
2013-02-04 00:40:00,33.9,25.5,30.04,ESE,116,3.0,7.0,71,0.00,,---,0.00,VWS V14.01,2013-02-04 06:40:00,
2013-02-04 00:44:00,33.9,25.8,30.04,ESE,110,3.0,7.0,72,0.00,,---,0.00,VWS V14.01,2013-02-04 06:44:00,
2013-02-04 00:45:00,33.8,25.7,30.04,ESE,112,2.0,7.0,72,0.00,,---,0.00,VWS V14.01,2013-02-04 06:45:00,
2013-02-04 00:49:00,33.8,25.7,30.04,SSE,148,3.0,7.0,72,0.00,,---,0.00,VWS V14.01,2013-02-04 06:49:00,
2013-02-04 00:50:00,33.7,25.6,30.03,ESE,118,3.0,7.0,72,0.00,,---,0.00,VWS V14.01,2013-02-04 06:50:00,
2013-02-04 00:54:00,33.8,26.1,30.03,ESE,116,4.0,7.0,73,0.00,,---,0.00,VWS V14.01,2013-02-04 06:54:00,
2013-02-04 00:55:00,33.8,26.1,30.03,ESE,116,4.0,7.0,73,0.00,,---,0.00,VWS V14.01,2013-02-04 06:55:00,
2013-02-04 00:59:00,33.7,26.3,30.03,ESE,115,5.0,6.0,74,0.00,,---,0.00,VWS V14.01,2013-02-04 06:59:00,
2013-02-04 01:00:00,33.7,26.3,30.03,SE,131,5.0,6.0,74,0.00,,---,0.00,VWS V14.01,2013-02-04 07:00:00,
2013-02-04 01:04:00,33.7,26.3,30.03,ESE,120,4.0,6.0,74,0.00,,---,0.00,VWS V14.01,2013-02-04 07:04:00,
2013-02-04 01:05:00,33.8,26.4,30.03,ESE,120,4.0,6.0,74,0.00,,---,0.00,VWS V14.01,2013-02-04 07:05:00,
2013-02-04 01:06:00,33.8,26.4,30.03,SE,135,5.0,6.0,74,0.00,,---,0.00,VWS V14.01,2013-02-04 07:06:00,
2013-02-04 01:09:00,33.8,26.1,30.03,ESE,119,3.0,7.0,73,0.00,,---,0.00,VWS V14.01,2013-02-04 07:09:00,
2013-02-04 01:10:00,33.8,26.1,30.03,ESE,119,3.0,7.0,73,0.00,,---,0.00,VWS V14.01,2013-02-04 07:10:00,
2013-02-04 01:11:00,33.8,26.1,30.03,ESE,120,4.0,7.0,73,0.00,,---,0.00,VWS V14.01,2013-02-04 07:11:00,
2013-02-04 01:14:00,33.9,26.2,30.03,SE,139,3.0,7.0,73,0.00,,---,0.00,VWS V14.01,2013-02-04 07:14:00,
2013-02-04 01:15:00,33.9,26.2,30.03,ESE,122,4.0,7.0,73,0.00,,---,0.00,VWS V14.01,2013-02-04 07:15:00,
2013-02-04 01:16:00,34.0,26.3,30.03,SE,137,4.0,7.0,73,0.00,,---,0.00,VWS V14.01,2013-02-04 07:16:00,
2013-02-04 01:19:00,34.0,26.3,30.03,SE,131,6.0,8.0,73,0.00,,---,0.00,VWS V14.01,2013-02-04 07:19:00,
2013-02-04 01:20:00,34.1,26.4,30.03,SE,127,5.0,8.0,73,0.00,,---,0.00,VWS V14.01,2013-02-04 07:20:00,
2013-02-04 01:21:00,34.1,26.4,30.03,East,100,7.0,9.0,73,0.00,,---,0.00,VWS V14.01,2013-02-04 07:21:00,
2013-02-04 01:25:00,34.2,26.8,30.03,ESE,123,6.0,9.0,74,0.00,,---,0.00,VWS V14.01,2013-02-04 07:25:00,
2013-02-04 01:26:00,34.1,26.7,30.03,ESE,114,6.0,9.0,74,0.00,,---,0.00,VWS V14.01,2013-02-04 07:26:00,
2013-02-04 01:30:00,34.2,26.5,30.03,SE,125,4.0,10.0,73,0.00,,---,0.00,VWS V14.01,2013-02-04 07:30:00,
2013-02-04 01:31:00,34.2,26.8,30.03,SE,131,4.0,10.0,74,0.00,,---,0.00,VWS V14.01,2013-02-04 07:31:00,
2013-02-04 01:35:00,34.1,26.7,30.03,ESE,110,6.0,10.0,74,0.00,,---,0.00,VWS V14.01,2013-02-04 07:35:00,
2013-02-04 01:36:00,34.1,26.7,30.03,ESE,115,7.0,10.0,74,0.00,,---,0.00,VWS V14.01,2013-02-04 07:36:00,
2013-02-04 01:40:00,34.1,26.7,30.03,ESE,116,8.0,11.0,74,0.00,,---,0.00,VWS V14.01,2013-02-04 07:40:00,
2013-02-04 01:41:00,34.1,27.0,30.03,ESE,110,7.0,11.0,75,0.00,,---,0.00,VWS V14.01,2013-02-04 07:41:00,
2013-02-04 01:42:00,34.1,27.0,30.03,ESE,117,7.0,11.0,75,0.00,,---,0.00,VWS V14.01,2013-02-04 07:42:00,
2013-02-04 01:45:00,34.2,27.1,30.02,ESE,109,7.0,11.0,75,0.00,,---,0.00,VWS V14.01,2013-02-04 07:45:00,
2013-02-04 01:47:00,34.1,27.0,30.02,ESE,121,6.0,11.0,75,0.00,,---,0.00,VWS V14.01,2013-02-04 07:47:00,
2013-02-04 01:50:00,34.2,27.1,30.02,SE,139,7.0,11.0,75,0.00,,---,0.00,VWS V14.01,2013-02-04 07:50:00,
2013-02-04 01:51:00,34.2,27.1,30.02,ESE,108,5.0,11.0,75,0.00,,---,0.00,VWS V14.01,2013-02-04 07:51:00,
2013-02-04 01:52:00,34.1,27.0,30.02,East,101,4.0,11.0,75,0.00,,---,0.00,VWS V14.01,2013-02-04 07:52:00,
2013-02-04 01:56:00,34.0,27.2,30.01,ESE,114,4.0,11.0,76,0.00,,---,0.00,VWS V14.01,2013-02-04 07:56:00,
2013-02-04 01:57:00,34.0,27.2,30.01,ESE,114,3.0,11.0,76,0.00,,---,0.00,VWS V14.01,2013-02-04 07:57:00,
2013-02-04 02:00:00,34.0,27.2,30.01,SE,129,3.0,11.0,76,0.00,,---,0.00,VWS V14.01,2013-02-04 08:00:00,
2013-02-04 02:01:00,34.0,27.2,30.01,ESE,112,5.0,6.0,76,0.00,,---,0.00,VWS V14.01,2013-02-04 08:01:00,
2013-02-04 02:02:00,33.9,27.1,30.01,ESE,116,6.0,6.0,76,0.00,,---,0.00,VWS V14.01,2013-02-04 08:02:00,
2013-02-04 02:06:00,33.8,27.4,30.01,SE,127,2.0,6.0,77,0.00,,---,0.00,VWS V14.01,2013-02-04 08:06:00,
2013-02-04 02:07:00,33.7,27.3,30.01,SE,128,3.0,6.0,77,0.00,,---,0.00,VWS V14.01,2013-02-04 08:07:00,
2013-02-04 02:11:00,33.7,27.3,30.01,ESE,107,4.0,6.0,77,0.00,,---,0.00,VWS V14.01,2013-02-04 08:11:00,
2013-02-04 02:12:00,33.7,27.3,30.01,ESE,113,3.0,6.0,77,0.00,,---,0.00,VWS V14.01,2013-02-04 08:12:00,
2013-02-04 02:16:00,33.6,27.5,30.01,SE,124,3.0,6.0,78,0.00,,---,0.00,VWS V14.01,2013-02-04 08:16:00,
2013-02-04 02:17:00,33.7,27.6,30.01,SE,124,3.0,6.0,78,0.00,,---,0.00,VWS V14.01,2013-02-04 08:17:00,
2013-02-04 02:21:00,33.7,27.6,30.01,ESE,118,3.0,6.0,78,0.00,,---,0.00,VWS V14.01,2013-02-04 08:21:00,
2013-02-04 02:22:00,33.7,27.6,30.00,ESE,118,3.0,6.0,78,0.00,,---,0.00,VWS V14.01,2013-02-04 08:22:00,
2013-02-04 02:23:00,33.7,27.6,30.00,ESE,115,4.0,6.0,78,0.00,,---,0.00,VWS V14.01,2013-02-04 08:23:00,
2013-02-04 02:26:00,33.8,27.7,30.00,ESE,112,3.0,6.0,78,0.00,,---,0.00,VWS V14.01,2013-02-04 08:26:00,
2013-02-04 02:27:00,33.7,27.6,30.00,ESE,116,6.0,7.0,78,0.00,,---,0.00,VWS V14.01,2013-02-04 08:27:00,
2013-02-04 02:28:00,33.8,27.7,30.00,ESE,114,4.0,7.0,78,0.00,,---,0.00,VWS V14.01,2013-02-04 08:28:00,
2013-02-04 02:30:00,33.8,27.7,30.00,ESE,114,4.0,7.0,78,0.00,,---,0.00,VWS V14.01,2013-02-04 08:30:00,
2013-02-04 02:31:00,33.8,27.7,30.00,ESE,115,4.0,8.0,78,0.00,,---,0.00,VWS V14.01,2013-02-04 08:31:00,
2013-02-04 02:32:00,33.8,27.7,30.00,ESE,118,5.0,8.0,78,0.00,,---,0.00,VWS V14.01,2013-02-04 08:32:00,
2013-02-04 02:33:00,33.8,27.7,30.00,ESE,105,4.0,8.0,78,0.00,,---,0.00,VWS V14.01,2013-02-04 08:33:00,
2013-02-04 02:36:00,33.9,27.8,30.00,East,93,4.0,8.0,78,0.00,,---,0.00,VWS V14.01,2013-02-04 08:36:00,
2013-02-04 02:37:00,33.9,27.8,30.00,East,96,5.0,8.0,78,0.00,,---,0.00,VWS V14.01,2013-02-04 08:37:00,
2013-02-04 02:38:00,33.9,27.8,30.00,East,98,6.0,8.0,78,0.00,,---,0.00,VWS V14.01,2013-02-04 08:38:00,
2013-02-04 02:42:00,33.9,27.8,30.00,ESE,108,4.0,8.0,78,0.00,,---,0.00,VWS V14.01,2013-02-04 08:42:00,
2013-02-04 02:43:00,33.9,27.8,30.00,ESE,118,3.0,8.0,78,0.00,,---,0.00,VWS V14.01,2013-02-04 08:43:00,
2013-02-04 02:44:00,33.9,27.8,30.00,ESE,118,4.0,8.0,78,0.00,,---,0.00,VWS V14.01,2013-02-04 08:44:00,
2013-02-04 02:47:00,33.9,28.1,30.00,ESE,120,4.0,8.0,79,0.00,,---,0.00,VWS V14.01,2013-02-04 08:47:00,
2013-02-04 02:49:00,33.9,28.1,30.00,ESE,110,4.0,8.0,79,0.00,,---,0.00,VWS V14.01,2013-02-04 08:49:00,
2013-02-04 02:52:00,34.0,28.2,30.00,SE,142,3.0,8.0,79,0.00,,---,0.00,VWS V14.01,2013-02-04 08:52:00,
2013-02-04 02:54:00,34.1,28.0,29.99,SE,126,4.0,8.0,78,0.00,,---,0.00,VWS V14.01,2013-02-04 08:54:00,
2013-02-04 02:57:00,34.2,28.1,29.99,SE,125,7.0,8.0,78,0.00,,---,0.00,VWS V14.01,2013-02-04 08:57:00,
2013-02-04 02:59:00,34.3,28.2,29.99,ESE,112,5.0,7.0,78,0.00,,---,0.00,VWS V14.01,2013-02-04 08:59:00,
2013-02-04 03:00:00,34.2,28.1,29.99,ESE,116,5.0,8.0,78,0.00,,---,0.00,VWS V14.01,2013-02-04 09:00:00,
2013-02-04 03:02:00,34.3,28.2,29.99,ESE,116,5.0,7.0,78,0.00,,---,0.00,VWS V14.01,2013-02-04 09:02:00,
2013-02-04 03:04:00,34.3,28.2,29.99,ESE,118,6.0,8.0,78,0.00,,---,0.00,VWS V14.01,2013-02-04 09:04:00,
2013-02-04 03:07:00,34.3,28.2,29.99,ESE,114,5.0,9.0,78,0.00,,---,0.00,VWS V14.01,2013-02-04 09:07:00,
2013-02-04 03:09:00,34.3,28.5,29.98,ESE,115,7.0,9.0,79,0.00,,---,0.00,VWS V14.01,2013-02-04 09:09:00,
2013-02-04 03:10:00,34.3,28.5,29.98,SE,127,6.0,9.0,79,0.00,,---,0.00,VWS V14.01,2013-02-04 09:10:00,
2013-02-04 03:12:00,34.4,28.6,29.98,SE,124,7.0,9.0,79,0.00,,---,0.00,VWS V14.01,2013-02-04 09:12:00,
2013-02-04 03:13:00,34.4,28.6,29.98,SE,128,6.0,9.0,79,0.00,,---,0.00,VWS V14.01,2013-02-04 09:13:00,
2013-02-04 03:14:00,34.4,28.6,29.98,ESE,120,8.0,9.0,79,0.00,,---,0.00,VWS V14.01,2013-02-04 09:14:00,
2013-02-04 03:15:00,34.4,28.6,29.98,ESE,111,6.0,9.0,79,0.00,,---,0.00,VWS V14.01,2013-02-04 09:15:00,
2013-02-04 03:17:00,34.3,28.5,29.98,SE,124,4.0,9.0,79,0.00,,---,0.00,VWS V14.01,2013-02-04 09:17:00,
2013-02-04 03:18:00,34.4,28.6,29.98,SE,131,5.0,9.0,79,0.00,,---,0.00,VWS V14.01,2013-02-04 09:18:00,
2013-02-04 03:19:00,34.3,28.5,29.98,ESE,123,6.0,9.0,79,0.00,,---,0.00,VWS V14.01,2013-02-04 09:19:00,
2013-02-04 03:20:00,34.3,28.5,29.98,ESE,122,3.0,9.0,79,0.00,,---,0.00,VWS V14.01,2013-02-04 09:20:00,
2013-02-04 03:23:00,34.3,28.5,29.98,ESE,110,7.0,9.0,79,0.00,,---,0.00,VWS V14.01,2013-02-04 09:23:00,
2013-02-04 03:25:00,34.3,28.5,29.98,ESE,119,6.0,9.0,79,0.00,,---,0.00,VWS V14.01,2013-02-04 09:25:00,
2013-02-04 03:28:00,34.3,28.5,29.98,SE,145,2.0,3.0,79,0.00,,---,0.00,VWS V14.01,2013-02-04 09:28:00,
2013-02-04 03:30:00,34.3,28.8,29.98,ESE,121,7.0,7.0,80,0.00,,---,0.00,VWS V14.01,2013-02-04 09:30:00,
2013-02-04 03:33:00,34.2,28.7,29.98,SE,129,5.0,7.0,80,0.00,,---,0.00,VWS V14.01,2013-02-04 09:33:00,
2013-02-04 03:35:00,34.2,28.7,29.97,ESE,111,5.0,7.0,80,0.00,,---,0.00,VWS V14.01,2013-02-04 09:35:00,
2013-02-04 03:38:00,34.3,28.8,29.97,ESE,118,4.0,8.0,80,0.00,,---,0.00,VWS V14.01,2013-02-04 09:38:00,
2013-02-04 03:40:00,34.3,28.8,29.97,ESE,114,5.0,8.0,80,0.00,,---,0.00,VWS V14.01,2013-02-04 09:40:00,
2013-02-04 03:43:00,34.3,28.8,29.97,ESE,108,4.0,8.0,80,0.00,,---,0.00,VWS V14.01,2013-02-04 09:43:00,
2013-02-04 03:45:00,34.3,28.8,29.97,ESE,112,3.0,8.0,80,0.00,,---,0.00,VWS V14.01,2013-02-04 09:45:00,
2013-02-04 03:46:00,34.3,28.8,29.97,ESE,112,3.0,8.0,80,0.00,,---,0.00,VWS V14.01,2013-02-04 09:46:00,
2013-02-04 03:48:00,34.2,28.7,29.97,ESE,114,5.0,8.0,80,0.00,,---,0.00,VWS V14.01,2013-02-04 09:48:00,
2013-02-04 03:50:00,34.2,28.7,29.97,ESE,109,7.0,8.0,80,0.00,,---,0.00,VWS V14.01,2013-02-04 09:50:00,
2013-02-04 03:51:00,34.2,28.7,29.97,ESE,110,4.0,8.0,80,0.00,,---,0.00,VWS V14.01,2013-02-04 09:51:00,
2013-02-04 03:53:00,34.2,29.0,29.96,ESE,122,5.0,8.0,81,0.00,,---,0.00,VWS V14.01,2013-02-04 09:53:00,
2013-02-04 03:55:00,34.1,28.9,29.96,ESE,107,6.0,8.0,81,0.00,,---,0.00,VWS V14.01,2013-02-04 09:55:00,
2013-02-04 03:56:00,34.1,28.9,29.97,SE,131,5.0,8.0,81,0.00,,---,0.00,VWS V14.01,2013-02-04 09:56:00,
2013-02-04 03:58:00,34.1,28.9,29.96,SE,137,4.0,5.0,81,0.00,,---,0.00,VWS V14.01,2013-02-04 09:58:00,
2013-02-04 03:59:00,34.1,28.9,29.96,SE,137,2.0,5.0,81,0.00,,---,0.00,VWS V14.01,2013-02-04 09:59:00,
2013-02-04 04:00:00,34.1,28.9,29.97,ESE,111,3.0,8.0,81,0.00,,---,0.00,VWS V14.01,2013-02-04 10:00:00,
2013-02-04 04:01:00,34.1,28.9,29.96,SE,137,2.0,5.0,81,0.00,,---,0.00,VWS V14.01,2013-02-04 10:01:00,
2013-02-04 04:04:00,34.0,29.1,29.96,SE,137,3.0,5.0,82,0.00,,---,0.00,VWS V14.01,2013-02-04 10:04:00,
2013-02-04 04:06:00,34.0,29.1,29.96,SE,129,3.0,5.0,82,0.00,,---,0.00,VWS V14.01,2013-02-04 10:06:00,
2013-02-04 04:09:00,34.2,29.0,29.96,ESE,116,5.0,5.0,81,0.00,,---,0.00,VWS V14.01,2013-02-04 10:09:00,
2013-02-04 04:11:00,34.2,29.0,29.96,ESE,117,3.0,5.0,81,0.00,,---,0.00,VWS V14.01,2013-02-04 10:11:00,
2013-02-04 04:14:00,34.3,29.1,29.96,ESE,117,3.0,5.0,81,0.00,,---,0.00,VWS V14.01,2013-02-04 10:14:00,
2013-02-04 04:16:00,34.3,29.1,29.96,ESE,117,3.0,5.0,81,0.00,,---,0.00,VWS V14.01,2013-02-04 10:16:00,
2013-02-04 04:19:00,34.3,29.1,29.96,ESE,114,3.0,5.0,81,0.00,,---,0.00,VWS V14.01,2013-02-04 10:19:00,
2013-02-04 04:20:00,34.3,29.1,29.96,ESE,115,5.0,5.0,81,0.00,,---,0.00,VWS V14.01,2013-02-04 10:20:00,
2013-02-04 04:21:00,34.3,29.1,29.96,ESE,108,2.0,5.0,81,0.00,,---,0.00,VWS V14.01,2013-02-04 10:21:00,
2013-02-04 04:24:00,34.4,29.2,29.96,ESE,114,2.0,5.0,81,0.00,,---,0.00,VWS V14.01,2013-02-04 10:24:00,
2013-02-04 04:25:00,34.4,29.2,29.96,ESE,114,2.0,5.0,81,0.00,,---,0.00,VWS V14.01,2013-02-04 10:25:00,
2013-02-04 04:26:00,34.4,29.2,29.96,ESE,114,2.0,5.0,81,0.00,,---,0.00,VWS V14.01,2013-02-04 10:26:00,
2013-02-04 04:27:00,34.3,29.1,29.96,ESE,114,3.0,5.0,81,0.00,,---,0.00,VWS V14.01,2013-02-04 10:27:00,
2013-02-04 04:30:00,34.4,29.2,29.95,ESE,112,5.0,5.0,81,0.00,,---,0.00,VWS V14.01,2013-02-04 10:30:00,
2013-02-04 04:32:00,34.4,29.2,29.96,ESE,120,4.0,5.0,81,0.00,,---,0.00,VWS V14.01,2013-02-04 10:32:00,
2013-02-04 04:35:00,34.5,29.3,29.95,SE,141,3.0,5.0,81,0.00,,---,0.00,VWS V14.01,2013-02-04 10:35:00,
2013-02-04 04:36:00,34.6,29.4,29.95,ESE,108,3.0,5.0,81,0.00,,---,0.00,VWS V14.01,2013-02-04 10:36:00,
2013-02-04 04:37:00,34.6,29.4,29.95,ESE,108,2.0,5.0,81,0.00,,---,0.00,VWS V14.01,2013-02-04 10:37:00,
2013-02-04 04:40:00,34.7,29.2,29.95,ESE,112,1.0,5.0,80,0.00,,---,0.00,VWS V14.01,2013-02-04 10:40:00,
2013-02-04 04:41:00,34.7,29.2,29.95,ESE,112,2.0,5.0,80,0.00,,---,0.00,VWS V14.01,2013-02-04 10:41:00,
2013-02-04 04:42:00,34.7,29.2,29.95,ESE,108,4.0,5.0,80,0.00,,---,0.00,VWS V14.01,2013-02-04 10:42:00,
2013-02-04 04:46:00,34.7,29.2,29.95,ESE,108,3.0,5.0,80,0.00,,---,0.00,VWS V14.01,2013-02-04 10:46:00,
2013-02-04 04:47:00,34.6,29.4,29.95,ESE,108,3.0,5.0,81,0.00,,---,0.00,VWS V14.01,2013-02-04 10:47:00,
2013-02-04 04:48:00,34.6,29.4,29.95,ESE,108,2.0,5.0,81,0.00,,---,0.00,VWS V14.01,2013-02-04 10:48:00,
2013-02-04 04:51:00,34.7,29.5,29.95,ESE,113,3.0,5.0,81,0.00,,---,0.00,VWS V14.01,2013-02-04 10:51:00,
2013-02-04 04:52:00,34.7,29.5,29.95,ESE,107,4.0,5.0,81,0.00,,---,0.00,VWS V14.01,2013-02-04 10:52:00,
2013-02-04 04:53:00,34.7,29.5,29.95,ESE,110,4.0,5.0,81,0.00,,---,0.00,VWS V14.01,2013-02-04 10:53:00,
2013-02-04 04:56:00,34.8,29.3,29.95,ESE,116,2.0,5.0,80,0.00,,---,0.00,VWS V14.01,2013-02-04 10:56:00,
2013-02-04 04:57:00,34.8,29.3,29.95,ESE,116,3.0,5.0,80,0.00,,---,0.00,VWS V14.01,2013-02-04 10:57:00,
2013-02-04 04:58:00,34.8,29.6,29.95,SE,126,3.0,4.0,81,0.00,,---,0.00,VWS V14.01,2013-02-04 10:58:00,
2013-02-04 05:00:00,34.8,29.6,29.95,ESE,120,4.0,5.0,81,0.00,,---,0.00,VWS V14.01,2013-02-04 11:00:00,
2013-02-04 05:02:00,34.9,29.4,29.95,SE,129,5.0,6.0,80,0.00,,---,0.00,VWS V14.01,2013-02-04 11:02:00,
2013-02-04 05:03:00,35.0,29.5,29.95,SE,129,5.0,6.0,80,0.00,,---,0.00,VWS V14.01,2013-02-04 11:03:00,
2013-02-04 05:07:00,35.0,29.5,29.94,ESE,116,6.0,6.0,80,0.00,,---,0.00,VWS V14.01,2013-02-04 11:07:00,
2013-02-04 05:08:00,35.0,29.5,29.94,ESE,116,6.0,6.0,80,0.00,,---,0.00,VWS V14.01,2013-02-04 11:08:00,
2013-02-04 05:12:00,35.0,29.5,29.94,ESE,116,6.0,6.0,80,0.00,,---,0.00,VWS V14.01,2013-02-04 11:12:00,
2013-02-04 05:13:00,35.0,29.5,29.94,ESE,116,6.0,6.0,80,0.00,,---,0.00,VWS V14.01,2013-02-04 11:13:00,
2013-02-04 05:14:00,35.0,29.5,29.94,ESE,116,6.0,6.0,80,0.00,,---,0.00,VWS V14.01,2013-02-04 11:14:00,
2013-02-04 05:17:00,35.0,29.5,29.94,ESE,116,6.0,6.0,80,0.00,,---,0.00,VWS V14.01,2013-02-04 11:17:00,
2013-02-04 05:18:00,35.0,29.5,29.94,ESE,116,6.0,6.0,80,0.00,,---,0.00,VWS V14.01,2013-02-04 11:18:00,
2013-02-04 05:19:00,35.0,29.5,29.93,ESE,116,6.0,6.0,80,0.00,,---,0.00,VWS V14.01,2013-02-04 11:19:00,
2013-02-04 05:22:00,35.0,29.5,29.93,ESE,116,6.0,6.0,80,0.00,,---,0.00,VWS V14.01,2013-02-04 11:22:00,
2013-02-04 05:23:00,35.0,29.5,29.94,ESE,116,6.0,6.0,80,0.00,,---,0.00,VWS V14.01,2013-02-04 11:23:00,
2013-02-04 05:24:00,35.0,29.5,29.93,ESE,116,6.0,6.0,80,0.00,,---,0.00,VWS V14.01,2013-02-04 11:24:00,
2013-02-04 05:28:00,35.0,29.5,29.93,ESE,116,6.0,6.0,80,0.00,,---,0.00,VWS V14.01,2013-02-04 11:28:00,
2013-02-04 05:29:00,35.0,29.5,29.93,ESE,116,6.0,6.0,80,0.00,,---,0.00,VWS V14.01,2013-02-04 11:29:00,
2013-02-04 05:30:00,35.0,29.5,29.93,ESE,116,6.0,6.0,80,0.00,,---,0.00,VWS V14.01,2013-02-04 11:30:00,
2013-02-04 05:33:00,35.9,29.7,29.93,ESE,114,7.0,7.0,78,0.00,,---,0.00,VWS V14.01,2013-02-04 11:33:00,
2013-02-04 05:34:00,35.9,29.7,29.93,ESE,111,7.0,7.0,78,0.00,,---,0.00,VWS V14.01,2013-02-04 11:34:00,
2013-02-04 05:38:00,36.0,29.5,29.92,SE,127,8.0,10.0,77,0.00,,---,0.00,VWS V14.01,2013-02-04 11:38:00,
2013-02-04 05:39:00,36.0,29.5,29.92,ESE,121,8.0,11.0,77,0.00,,---,0.00,VWS V14.01,2013-02-04 11:39:00,
2013-02-04 05:43:00,36.3,29.5,29.92,SE,128,5.0,11.0,76,0.00,,---,0.00,VWS V14.01,2013-02-04 11:43:00,
2013-02-04 05:44:00,36.4,29.6,29.92,ESE,103,6.0,11.0,76,0.00,,---,0.00,VWS V14.01,2013-02-04 11:44:00,
2013-02-04 05:48:00,36.7,29.5,29.92,SE,137,5.0,11.0,75,0.00,,---,0.00,VWS V14.01,2013-02-04 11:48:00,
2013-02-04 05:49:00,36.8,29.6,29.92,SE,127,3.0,11.0,75,0.00,,---,0.00,VWS V14.01,2013-02-04 11:49:00,
2013-02-04 05:53:00,37.1,29.6,29.93,SE,136,4.0,11.0,74,0.00,,---,0.00,VWS V14.01,2013-02-04 11:53:00,
2013-02-04 05:54:00,37.1,29.6,29.93,SSE,161,4.0,11.0,74,0.00,,---,0.00,VWS V14.01,2013-02-04 11:54:00,
2013-02-04 05:55:00,37.2,29.7,29.93,South,180,4.0,11.0,74,0.00,,---,0.00,VWS V14.01,2013-02-04 11:55:00,
2013-02-04 05:58:00,37.4,29.5,29.93,SW,236,1.0,3.0,73,0.00,,---,0.00,VWS V14.01,2013-02-04 11:58:00,
2013-02-04 05:59:00,37.5,29.6,29.93,East,93,1.0,3.0,73,0.00,,---,0.00,VWS V14.01,2013-02-04 11:59:00,
2013-02-04 06:00:00,37.4,29.5,29.93,SSW,206,2.0,11.0,73,0.00,,---,0.00,VWS V14.01,2013-02-04 12:00:00,
2013-02-04 06:01:00,37.5,29.6,29.93,East,94,2.0,3.0,73,0.00,,---,0.00,VWS V14.01,2013-02-04 12:01:00,
2013-02-04 06:03:00,37.6,29.7,29.93,SSE,159,5.0,7.0,73,0.00,,---,0.00,VWS V14.01,2013-02-04 12:03:00,
2013-02-04 06:04:00,37.6,29.4,29.93,SE,127,5.0,7.0,72,0.00,,---,0.00,VWS V14.01,2013-02-04 12:04:00,
2013-02-04 06:06:00,37.6,29.4,29.92,SE,139,7.0,7.0,72,0.00,,---,0.00,VWS V14.01,2013-02-04 12:06:00,
2013-02-04 06:09:00,37.6,29.7,29.92,SE,125,8.0,8.0,73,0.00,,---,0.00,VWS V14.01,2013-02-04 12:09:00,
2013-02-04 06:11:00,37.5,29.6,29.92,SE,143,4.0,10.0,73,0.00,,---,0.00,VWS V14.01,2013-02-04 12:11:00,
2013-02-04 06:14:00,37.5,29.6,29.92,ESE,118,4.0,10.0,73,0.00,,---,0.00,VWS V14.01,2013-02-04 12:14:00,
2013-02-04 06:15:00,37.6,29.7,29.92,SE,136,3.0,10.0,73,0.00,,---,0.00,VWS V14.01,2013-02-04 12:15:00,
2013-02-04 06:16:00,37.6,29.4,29.92,SE,127,3.0,10.0,72,0.00,,---,0.00,VWS V14.01,2013-02-04 12:16:00,
2013-02-04 06:19:00,37.7,29.5,29.92,SE,124,7.0,10.0,72,0.00,,---,0.00,VWS V14.01,2013-02-04 12:19:00,
2013-02-04 06:20:00,37.7,29.5,29.92,SE,124,6.0,10.0,72,0.00,,---,0.00,VWS V14.01,2013-02-04 12:20:00,
2013-02-04 06:21:00,37.7,29.5,29.92,SE,145,3.0,10.0,72,0.00,,---,0.00,VWS V14.01,2013-02-04 12:21:00,
2013-02-04 06:24:00,37.9,29.7,29.92,SE,146,3.0,10.0,72,0.00,,---,0.00,VWS V14.01,2013-02-04 12:24:00,
2013-02-04 06:25:00,37.9,29.7,29.92,SE,142,7.0,10.0,72,0.00,,---,0.00,VWS V14.01,2013-02-04 12:25:00,
2013-02-04 06:26:00,37.9,29.4,29.92,SSE,168,6.0,11.0,71,0.00,,---,0.00,VWS V14.01,2013-02-04 12:26:00,
2013-02-04 06:29:00,38.0,29.5,29.92,SE,128,4.0,6.0,71,0.00,,---,0.00,VWS V14.01,2013-02-04 12:29:00,
2013-02-04 06:30:00,38.0,29.8,29.92,SE,145,3.0,6.0,72,0.00,,---,0.00,VWS V14.01,2013-02-04 12:30:00,
2013-02-04 06:31:00,38.0,29.5,29.92,SE,128,4.0,7.0,71,0.00,,---,0.00,VWS V14.01,2013-02-04 12:31:00,
2013-02-04 06:34:00,38.1,29.9,29.92,SE,141,9.0,9.0,72,0.00,,---,0.00,VWS V14.01,2013-02-04 12:34:00,
2013-02-04 06:35:00,38.1,29.5,29.92,SE,139,5.0,9.0,71,0.00,,---,0.00,VWS V14.01,2013-02-04 12:35:00,
2013-02-04 06:36:00,38.1,29.5,29.92,SE,131,6.0,9.0,71,0.00,,---,0.00,VWS V14.01,2013-02-04 12:36:00,
2013-02-04 06:39:00,38.1,29.5,29.92,SE,145,3.0,9.0,71,0.00,,---,0.00,VWS V14.01,2013-02-04 12:39:00,
2013-02-04 06:40:00,38.1,29.5,29.92,SSE,158,4.0,9.0,71,0.00,,---,0.00,VWS V14.01,2013-02-04 12:40:00,
2013-02-04 06:41:00,38.2,29.6,29.92,SE,138,4.0,9.0,71,0.00,,---,0.00,VWS V14.01,2013-02-04 12:41:00,
2013-02-04 06:43:00,38.2,29.6,29.92,SSE,150,4.0,9.0,71,0.00,,---,0.00,VWS V14.01,2013-02-04 12:43:00,
2013-02-04 06:44:00,38.2,29.6,29.92,SSE,148,3.0,9.0,71,0.00,,---,0.00,VWS V14.01,2013-02-04 12:44:00,
2013-02-04 06:45:00,38.3,29.7,29.92,SSE,155,6.0,9.0,71,0.00,,---,0.00,VWS V14.01,2013-02-04 12:45:00,
2013-02-04 06:46:00,38.3,29.4,29.92,South,170,2.0,9.0,70,0.00,,---,0.00,VWS V14.01,2013-02-04 12:46:00,
2013-02-04 06:48:00,38.4,29.5,29.92,ESE,116,4.0,9.0,70,0.00,,---,0.00,VWS V14.01,2013-02-04 12:48:00,
2013-02-04 06:49:00,38.4,29.8,29.92,SE,131,3.0,9.0,71,0.00,,---,0.00,VWS V14.01,2013-02-04 12:49:00,
2013-02-04 06:50:00,38.4,29.8,29.92,SE,141,2.0,9.0,71,0.00,,---,0.00,VWS V14.01,2013-02-04 12:50:00,
2013-02-04 06:51:00,38.4,29.8,29.92,SSE,162,6.0,9.0,71,0.00,,---,0.00,VWS V14.01,2013-02-04 12:51:00,
2013-02-04 06:53:00,38.4,29.8,29.92,SE,137,4.0,9.0,71,0.00,,---,0.00,VWS V14.01,2013-02-04 12:53:00,
2013-02-04 06:55:00,38.4,29.8,29.92,SE,137,5.0,9.0,71,0.00,,---,0.00,VWS V14.01,2013-02-04 12:55:00,
2013-02-04 06:56:00,38.4,29.5,29.92,SE,137,4.0,9.0,70,0.00,,---,0.00,VWS V14.01,2013-02-04 12:56:00,
2013-02-04 06:58:00,38.4,29.5,29.92,SSE,147,3.0,3.0,70,0.00,,---,0.00,VWS V14.01,2013-02-04 12:58:00,
2013-02-04 07:00:00,38.4,29.5,29.92,SE,135,3.0,10.0,70,0.00,,---,0.00,VWS V14.01,2013-02-04 13:00:00,
2013-02-04 07:01:00,38.4,29.5,29.92,SSE,156,4.0,10.0,70,0.00,,---,0.00,VWS V14.01,2013-02-04 13:01:00,
2013-02-04 07:03:00,38.4,29.8,29.92,SSE,149,3.0,10.0,71,0.00,,---,0.00,VWS V14.01,2013-02-04 13:03:00,
2013-02-04 07:05:00,38.4,29.8,29.92,SE,128,4.0,10.0,71,0.00,,---,0.00,VWS V14.01,2013-02-04 13:05:00,
2013-02-04 07:06:00,38.4,29.8,29.92,SSE,159,5.0,10.0,71,0.00,,---,0.00,VWS V14.01,2013-02-04 13:06:00,
2013-02-04 07:08:00,38.3,29.7,29.92,SSE,150,4.0,10.0,71,0.00,,---,0.00,VWS V14.01,2013-02-04 13:08:00,
2013-02-04 07:10:00,38.3,29.7,29.92,South,177,5.0,10.0,71,0.00,,---,0.00,VWS V14.01,2013-02-04 13:10:00,
2013-02-04 07:11:00,38.3,29.7,29.92,SE,139,5.0,10.0,71,0.00,,---,0.00,VWS V14.01,2013-02-04 13:11:00,
2013-02-04 07:13:00,38.3,29.7,29.92,SSW,206,3.0,10.0,71,0.00,,---,0.00,VWS V14.01,2013-02-04 13:13:00,
2013-02-04 07:15:00,38.3,29.7,29.92,SE,135,3.0,10.0,71,0.00,,---,0.00,VWS V14.01,2013-02-04 13:15:00,
2013-02-04 07:16:00,38.3,29.7,29.92,SSE,162,4.0,10.0,71,0.00,,---,0.00,VWS V14.01,2013-02-04 13:16:00,
2013-02-04 07:18:00,38.3,29.7,29.92,SE,145,3.0,10.0,71,0.00,,---,0.00,VWS V14.01,2013-02-04 13:18:00,
2013-02-04 07:20:00,38.3,29.4,29.92,South,181,1.0,10.0,70,0.00,,---,0.00,VWS V14.01,2013-02-04 13:20:00,
2013-02-04 07:21:00,38.4,29.5,29.92,South,181,0.0,10.0,70,0.00,,---,0.00,VWS V14.01,2013-02-04 13:21:00,
2013-02-04 07:22:00,38.4,29.8,29.92,South,181,1.0,10.0,71,0.00,,---,0.00,VWS V14.01,2013-02-04 13:22:00,
2013-02-04 07:24:00,38.4,29.8,29.92,South,181,1.0,10.0,71,0.00,,---,0.00,VWS V14.01,2013-02-04 13:24:00,
2013-02-04 07:26:00,38.4,29.8,29.92,SSE,162,3.0,10.0,71,0.00,,---,0.00,VWS V14.01,2013-02-04 13:26:00,
2013-02-04 07:27:00,38.4,29.5,29.92,South,181,4.0,10.0,70,0.00,,---,0.00,VWS V14.01,2013-02-04 13:27:00,
2013-02-04 07:29:00,38.6,29.7,29.92,SSE,161,5.0,6.0,70,0.00,,---,0.00,VWS V14.01,2013-02-04 13:29:00,
2013-02-04 07:30:00,38.5,29.6,29.92,SE,137,3.0,10.0,70,0.00,,---,0.00,VWS V14.01,2013-02-04 13:30:00,
2013-02-04 07:31:00,38.7,29.8,29.92,SW,230,1.0,6.0,70,0.00,,---,0.00,VWS V14.01,2013-02-04 13:31:00,
2013-02-04 07:32:00,38.8,29.5,29.92,SSE,152,2.0,6.0,69,0.00,,---,0.00,VWS V14.01,2013-02-04 13:32:00,
2013-02-04 07:34:00,38.8,29.9,29.92,SSE,166,3.0,6.0,70,0.00,,---,0.00,VWS V14.01,2013-02-04 13:34:00,
2013-02-04 07:36:00,38.9,30.0,29.92,SSE,162,1.0,6.0,70,0.00,,---,0.00,VWS V14.01,2013-02-04 13:36:00,
2013-02-04 07:38:00,39.0,29.7,29.92,SE,141,3.0,6.0,69,0.00,,---,0.00,VWS V14.01,2013-02-04 13:38:00,
2013-02-04 07:39:00,39.0,30.1,29.92,SE,137,5.0,8.0,70,0.00,,---,0.00,VWS V14.01,2013-02-04 13:39:00,
2013-02-04 07:41:00,39.1,29.8,29.92,SSE,149,5.0,8.0,69,0.00,,---,0.00,VWS V14.01,2013-02-04 13:41:00,
2013-02-04 07:43:00,39.1,30.2,29.92,South,183,4.0,8.0,70,0.00,,---,0.00,VWS V14.01,2013-02-04 13:43:00,
2013-02-04 07:44:00,39.2,30.2,29.92,SE,137,5.0,8.0,70,0.00,,---,0.00,VWS V14.01,2013-02-04 13:44:00,
2013-02-04 07:46:00,39.3,30.0,29.93,SSE,158,2.0,9.0,69,0.00,,---,0.00,VWS V14.01,2013-02-04 13:46:00,
2013-02-04 07:47:00,39.3,30.0,29.93,SSE,154,7.0,9.0,69,0.00,,---,0.00,VWS V14.01,2013-02-04 13:47:00,
2013-02-04 07:48:00,39.4,30.1,29.93,SSW,194,7.0,11.0,69,0.00,,---,0.00,VWS V14.01,2013-02-04 13:48:00,
2013-02-04 07:49:00,39.5,30.2,29.93,SW,229,4.0,11.0,69,0.00,,---,0.00,VWS V14.01,2013-02-04 13:49:00,
2013-02-04 07:51:00,39.6,30.3,29.93,SE,143,2.0,11.0,69,0.00,,---,0.00,VWS V14.01,2013-02-04 13:51:00,
2013-02-04 07:52:00,39.6,30.3,29.93,SE,146,2.0,11.0,69,0.00,,---,0.00,VWS V14.01,2013-02-04 13:52:00,
2013-02-04 07:53:00,39.7,30.4,29.93,SSE,150,4.0,11.0,69,0.00,,---,0.00,VWS V14.01,2013-02-04 13:53:00,
2013-02-04 07:55:00,39.8,30.1,29.93,East,83,3.0,12.0,68,0.00,,---,0.00,VWS V14.01,2013-02-04 13:55:00,
2013-02-04 07:56:00,39.8,30.1,29.93,SSE,160,2.0,12.0,68,0.00,,---,0.00,VWS V14.01,2013-02-04 13:56:00,
2013-02-04 07:57:00,39.9,30.6,29.93,SE,141,1.0,12.0,69,0.00,,---,0.00,VWS V14.01,2013-02-04 13:57:00,
2013-02-04 07:58:00,39.9,30.6,29.93,SE,134,5.0,7.0,69,0.00,,---,0.00,VWS V14.01,2013-02-04 13:58:00,
2013-02-04 08:00:00,40.1,30.4,29.93,SSE,154,2.0,8.0,68,0.00,,---,0.00,VWS V14.01,2013-02-04 14:00:00,
2013-02-04 08:02:00,40.2,30.5,29.93,SE,140,6.0,8.0,68,0.00,,---,0.00,VWS V14.01,2013-02-04 14:02:00,
2013-02-04 08:03:00,40.3,30.2,29.93,South,179,3.0,8.0,67,0.00,,---,0.00,VWS V14.01,2013-02-04 14:03:00,
2013-02-04 08:05:00,40.5,30.4,29.93,SE,144,6.0,12.0,67,0.00,,---,0.00,VWS V14.01,2013-02-04 14:05:00,
2013-02-04 08:07:00,40.7,30.6,29.93,SE,131,6.0,14.0,67,0.00,,---,0.00,VWS V14.01,2013-02-04 14:07:00,
2013-02-04 08:08:00,40.8,30.3,29.93,SE,135,8.0,14.0,66,0.00,,---,0.00,VWS V14.01,2013-02-04 14:08:00,
2013-02-04 08:10:00,40.9,30.4,29.93,SSE,149,5.0,14.0,66,0.00,,---,0.00,VWS V14.01,2013-02-04 14:10:00,
2013-02-04 08:12:00,41.0,30.9,29.93,ESE,122,9.0,14.0,67,0.00,,---,0.00,VWS V14.01,2013-02-04 14:12:00,
2013-02-04 08:13:00,41.0,30.5,29.93,SE,135,6.0,14.0,66,0.00,,---,0.00,VWS V14.01,2013-02-04 14:13:00,
2013-02-04 08:14:00,41.0,30.9,29.92,SE,125,9.0,14.0,67,0.00,,---,0.00,VWS V14.01,2013-02-04 14:14:00,
2013-02-04 08:15:00,41.0,30.5,29.93,SE,127,11.0,14.0,66,0.00,,---,0.00,VWS V14.01,2013-02-04 14:15:00,
2013-02-04 08:18:00,41.0,30.5,29.92,SSE,148,5.0,14.0,66,0.00,,---,0.00,VWS V14.01,2013-02-04 14:18:00,
2013-02-04 08:19:00,41.1,30.6,29.93,SSE,148,8.0,14.0,66,0.00,,---,0.00,VWS V14.01,2013-02-04 14:19:00,
2013-02-04 08:20:00,41.1,30.6,29.93,SE,144,4.0,14.0,66,0.00,,---,0.00,VWS V14.01,2013-02-04 14:20:00,
2013-02-04 08:23:00,41.1,30.6,29.93,SSE,158,8.0,14.0,66,0.00,,---,0.00,VWS V14.01,2013-02-04 14:23:00,
2013-02-04 08:24:00,41.1,30.6,29.93,SSE,152,5.0,14.0,66,0.00,,---,0.00,VWS V14.01,2013-02-04 14:24:00,
2013-02-04 08:25:00,41.1,30.6,29.93,SSE,148,3.0,14.0,66,0.00,,---,0.00,VWS V14.01,2013-02-04 14:25:00,
2013-02-04 08:28:00,41.1,30.6,29.92,South,182,5.0,7.0,66,0.00,,---,0.00,VWS V14.01,2013-02-04 14:28:00,
2013-02-04 08:29:00,41.1,30.6,29.92,SSE,154,11.0,11.0,66,0.00,,---,0.00,VWS V14.01,2013-02-04 14:29:00,
2013-02-04 08:30:00,41.0,30.5,29.92,SE,131,5.0,12.0,66,0.00,,---,0.00,VWS V14.01,2013-02-04 14:30:00,
2013-02-04 08:33:00,41.0,30.5,29.92,SSE,168,8.0,12.0,66,0.00,,---,0.00,VWS V14.01,2013-02-04 14:33:00,
2013-02-04 08:34:00,41.1,30.6,29.92,SE,130,4.0,12.0,66,0.00,,---,0.00,VWS V14.01,2013-02-04 14:34:00,
2013-02-04 08:36:00,41.1,31.0,29.92,SE,141,4.0,12.0,67,0.00,,---,0.00,VWS V14.01,2013-02-04 14:36:00,
2013-02-04 08:38:00,41.1,30.6,29.92,ESE,123,7.0,12.0,66,0.00,,---,0.00,VWS V14.01,2013-02-04 14:38:00,
2013-02-04 08:39:00,41.1,30.6,29.92,SE,145,6.0,12.0,66,0.00,,---,0.00,VWS V14.01,2013-02-04 14:39:00,
2013-02-04 08:41:00,41.1,31.0,29.92,SE,135,7.0,12.0,67,0.00,,---,0.00,VWS V14.01,2013-02-04 14:41:00,
2013-02-04 08:43:00,41.1,31.0,29.92,SE,131,8.0,12.0,67,0.00,,---,0.00,VWS V14.01,2013-02-04 14:43:00,
2013-02-04 08:44:00,41.1,30.6,29.92,SSE,148,5.0,12.0,66,0.00,,---,0.00,VWS V14.01,2013-02-04 14:44:00,
2013-02-04 08:46:00,41.2,30.7,29.92,SSE,152,5.0,12.0,66,0.00,,---,0.00,VWS V14.01,2013-02-04 14:46:00,
2013-02-04 08:48:00,41.2,31.1,29.92,SSE,151,4.0,12.0,67,0.00,,---,0.00,VWS V14.01,2013-02-04 14:48:00,
2013-02-04 08:49:00,41.2,31.1,29.92,South,183,4.0,12.0,67,0.00,,---,0.00,VWS V14.01,2013-02-04 14:49:00,
2013-02-04 08:51:00,41.3,31.2,29.92,SSE,148,2.0,12.0,67,0.00,,---,0.00,VWS V14.01,2013-02-04 14:51:00,
2013-02-04 08:53:00,41.3,31.2,29.92,South,171,3.0,12.0,67,0.00,,---,0.00,VWS V14.01,2013-02-04 14:53:00,
2013-02-04 08:54:00,41.4,31.3,29.92,South,173,4.0,12.0,67,0.00,,---,0.00,VWS V14.01,2013-02-04 14:54:00,
2013-02-04 08:56:00,41.3,31.2,29.92,South,175,7.0,12.0,67,0.00,,---,0.00,VWS V14.01,2013-02-04 14:56:00,
2013-02-04 08:58:00,41.4,31.3,29.92,SE,132,6.0,8.0,67,0.00,,---,0.00,VWS V14.01,2013-02-04 14:58:00,
2013-02-04 08:59:00,41.3,31.2,29.92,SE,144,3.0,8.0,67,0.00,,---,0.00,VWS V14.01,2013-02-04 14:59:00,
2013-02-04 09:00:00,41.3,31.2,29.92,South,169,1.0,12.0,67,0.00,,---,0.00,VWS V14.01,2013-02-04 15:00:00,
2013-02-04 09:01:00,41.3,31.2,29.92,SE,144,3.0,8.0,67,0.00,,---,0.00,VWS V14.01,2013-02-04 15:01:00,
2013-02-04 09:03:00,41.3,31.2,29.92,SE,144,3.0,8.0,67,0.00,,---,0.00,VWS V14.01,2013-02-04 15:03:00,
2013-02-04 09:04:00,41.3,31.2,29.92,SE,144,3.0,8.0,67,0.00,,---,0.00,VWS V14.01,2013-02-04 15:04:00,
2013-02-04 09:05:00,41.3,31.2,29.92,SE,144,3.0,8.0,67,0.00,,---,0.00,VWS V14.01,2013-02-04 15:05:00,
2013-02-04 09:06:00,41.3,31.2,29.92,SE,144,3.0,8.0,67,0.00,,---,0.00,VWS V14.01,2013-02-04 15:06:00,
2013-02-04 09:09:00,41.3,31.2,29.92,SE,144,3.0,8.0,67,0.00,,---,0.00,VWS V14.01,2013-02-04 15:09:00,
2013-02-04 09:10:00,41.3,31.2,29.92,SE,144,3.0,8.0,67,0.00,,---,0.00,VWS V14.01,2013-02-04 15:10:00,
2013-02-04 09:11:00,41.3,31.2,29.92,SE,144,3.0,8.0,67,0.00,,---,0.00,VWS V14.01,2013-02-04 15:11:00,
2013-02-04 09:14:00,41.3,31.2,29.92,SE,144,3.0,8.0,67,0.00,,---,0.00,VWS V14.01,2013-02-04 15:14:00,
2013-02-04 09:15:00,41.3,31.2,29.92,SE,144,3.0,8.0,67,0.00,,---,0.00,VWS V14.01,2013-02-04 15:15:00,
2013-02-04 09:16:00,41.3,31.2,29.91,SE,144,3.0,8.0,67,0.00,,---,0.00,VWS V14.01,2013-02-04 15:16:00,
2013-02-04 09:19:00,41.3,31.2,29.91,SE,144,3.0,8.0,67,0.00,,---,0.00,VWS V14.01,2013-02-04 15:19:00,
2013-02-04 09:20:00,41.3,31.2,29.91,SE,144,3.0,8.0,67,0.00,,---,0.00,VWS V14.01,2013-02-04 15:20:00,
2013-02-04 09:21:00,41.3,31.2,29.91,SE,144,3.0,8.0,67,0.00,,---,0.00,VWS V14.01,2013-02-04 15:21:00,
2013-02-04 09:24:00,41.3,31.2,29.91,SE,144,3.0,8.0,67,0.00,,---,0.00,VWS V14.01,2013-02-04 15:24:00,
2013-02-04 09:25:00,42.0,31.5,29.91,SSE,162,12.0,17.0,66,0.00,,---,0.00,VWS V14.01,2013-02-04 15:25:00,
2013-02-04 09:26:00,42.0,31.5,29.91,SSE,151,9.0,17.0,66,0.00,,---,0.00,VWS V14.01,2013-02-04 15:26:00,
2013-02-04 09:29:00,42.2,31.7,29.90,SE,130,10.0,15.0,66,0.00,,---,0.00,VWS V14.01,2013-02-04 15:29:00,
2013-02-04 09:30:00,42.2,31.7,29.90,SE,126,12.0,18.0,66,0.00,,---,0.00,VWS V14.01,2013-02-04 15:30:00,
2013-02-04 09:32:00,42.2,31.7,29.90,SSE,168,9.0,18.0,66,0.00,,---,0.00,VWS V14.01,2013-02-04 15:32:00,
2013-02-04 09:34:00,42.4,31.9,29.90,SSE,148,10.0,18.0,66,0.00,,---,0.00,VWS V14.01,2013-02-04 15:34:00,
2013-02-04 09:36:00,42.5,32.0,29.91,SE,135,11.0,18.0,66,0.00,,---,0.00,VWS V14.01,2013-02-04 15:36:00,
2013-02-04 09:37:00,42.6,31.7,29.91,South,170,6.0,18.0,65,0.00,,---,0.00,VWS V14.01,2013-02-04 15:37:00,
2013-02-04 09:40:00,42.8,32.2,29.91,SE,145,1.0,18.0,66,0.00,,---,0.00,VWS V14.01,2013-02-04 15:40:00,
2013-02-04 09:41:00,42.9,32.3,29.91,SE,140,6.0,18.0,66,0.00,,---,0.00,VWS V14.01,2013-02-04 15:41:00,
2013-02-04 09:42:00,43.1,32.2,29.91,SSW,202,4.0,18.0,65,0.00,,---,0.00,VWS V14.01,2013-02-04 15:42:00,
2013-02-04 09:45:00,43.1,32.2,29.92,SE,133,4.0,18.0,65,0.00,,---,0.00,VWS V14.01,2013-02-04 15:45:00,
2013-02-04 09:46:00,43.1,32.2,29.91,SE,133,4.0,18.0,65,0.00,,---,0.00,VWS V14.01,2013-02-04 15:46:00,
2013-02-04 09:48:00,43.1,32.2,29.91,SSE,164,3.0,18.0,65,0.00,,---,0.00,VWS V14.01,2013-02-04 15:48:00,
2013-02-04 09:50:00,43.2,32.2,29.91,SSE,164,7.0,18.0,65,0.00,,---,0.00,VWS V14.01,2013-02-04 15:50:00,
2013-02-04 09:51:00,43.2,32.2,29.91,SSW,195,6.0,18.0,65,0.00,,---,0.00,VWS V14.01,2013-02-04 15:51:00,
2013-02-04 09:53:00,43.2,31.9,29.91,SE,134,9.0,18.0,64,0.00,,---,0.00,VWS V14.01,2013-02-04 15:53:00,
2013-02-04 09:55:00,43.2,32.2,29.91,South,181,8.0,18.0,65,0.00,,---,0.00,VWS V14.01,2013-02-04 15:55:00,
2013-02-04 09:56:00,43.2,32.2,29.91,SE,139,7.0,18.0,65,0.00,,---,0.00,VWS V14.01,2013-02-04 15:56:00,
2013-02-04 09:58:00,43.3,32.3,29.91,SSE,149,6.0,6.0,65,0.00,,---,0.00,VWS V14.01,2013-02-04 15:58:00,
2013-02-04 10:00:00,43.3,32.3,29.91,SSE,164,8.0,10.0,65,0.00,,---,0.00,VWS V14.01,2013-02-04 16:00:00,
2013-02-04 10:01:00,43.3,32.3,29.91,South,178,7.0,10.0,65,0.00,,---,0.00,VWS V14.01,2013-02-04 16:01:00,
2013-02-04 10:02:00,43.3,32.3,29.91,South,172,5.0,10.0,65,0.00,,---,0.00,VWS V14.01,2013-02-04 16:02:00,
2013-02-04 10:03:00,43.4,32.4,29.91,SSE,154,6.0,10.0,65,0.00,,---,0.00,VWS V14.01,2013-02-04 16:03:00,
2013-02-04 10:05:00,43.4,32.4,29.91,SE,141,8.0,12.0,65,0.00,,---,0.00,VWS V14.01,2013-02-04 16:05:00,
2013-02-04 10:06:00,43.5,32.5,29.91,South,190,3.0,12.0,65,0.00,,---,0.00,VWS V14.01,2013-02-04 16:06:00,
2013-02-04 10:07:00,43.5,32.5,29.91,SE,134,4.0,12.0,65,0.00,,---,0.00,VWS V14.01,2013-02-04 16:07:00,
2013-02-04 10:08:00,43.6,32.6,29.91,ESE,118,5.0,12.0,65,0.00,,---,0.00,VWS V14.01,2013-02-04 16:08:00,
2013-02-04 10:10:00,43.6,32.6,29.91,SE,143,6.0,12.0,65,0.00,,---,0.00,VWS V14.01,2013-02-04 16:10:00,
2013-02-04 10:11:00,43.7,32.7,29.91,SSE,157,7.0,12.0,65,0.00,,---,0.00,VWS V14.01,2013-02-04 16:11:00,
2013-02-04 10:12:00,43.8,32.4,29.91,SSE,148,4.0,12.0,64,0.00,,---,0.00,VWS V14.01,2013-02-04 16:12:00,
2013-02-04 10:13:00,43.8,32.4,29.91,SE,139,7.0,12.0,64,0.00,,---,0.00,VWS V14.01,2013-02-04 16:13:00,
2013-02-04 10:15:00,43.9,32.9,29.91,SSE,160,7.0,12.0,65,0.00,,---,0.00,VWS V14.01,2013-02-04 16:15:00,
2013-02-04 10:16:00,44.0,32.6,29.91,SE,134,4.0,12.0,64,0.00,,---,0.00,VWS V14.01,2013-02-04 16:16:00,
2013-02-04 10:17:00,44.0,33.0,29.92,South,187,4.0,12.0,65,0.00,,---,0.00,VWS V14.01,2013-02-04 16:17:00,
2013-02-04 10:19:00,44.1,33.1,29.91,South,169,6.0,12.0,65,0.00,,---,0.00,VWS V14.01,2013-02-04 16:19:00,
2013-02-04 10:20:00,44.2,33.2,29.92,SSE,165,7.0,12.0,65,0.00,,---,0.00,VWS V14.01,2013-02-04 16:20:00,
2013-02-04 10:22:00,44.3,32.9,29.92,SE,138,3.0,12.0,64,0.00,,---,0.00,VWS V14.01,2013-02-04 16:22:00,
2013-02-04 10:23:00,44.4,33.4,29.91,SE,133,8.0,12.0,65,0.00,,---,0.00,VWS V14.01,2013-02-04 16:23:00,
2013-02-04 10:24:00,44.5,33.1,29.91,SSE,158,4.0,12.0,64,0.00,,---,0.00,VWS V14.01,2013-02-04 16:24:00,
2013-02-04 10:25:00,44.6,33.6,29.92,SSE,157,5.0,12.0,65,0.00,,---,0.00,VWS V14.01,2013-02-04 16:25:00,
2013-02-04 10:27:00,44.8,33.4,29.92,SSE,149,7.0,12.0,64,0.00,,---,0.00,VWS V14.01,2013-02-04 16:27:00,
2013-02-04 10:28:00,44.8,33.4,29.92,SE,131,3.0,5.0,64,0.00,,---,0.00,VWS V14.01,2013-02-04 16:28:00,
2013-02-04 10:29:00,44.9,33.1,29.92,SSE,158,10.0,11.0,63,0.00,,---,0.00,VWS V14.01,2013-02-04 16:29:00,
2013-02-04 10:30:00,45.0,33.2,29.92,SE,137,2.0,12.0,63,0.00,,---,0.00,VWS V14.01,2013-02-04 16:30:00,
2013-02-04 10:32:00,45.1,33.3,29.92,SSW,194,8.0,12.0,63,0.00,,---,0.00,VWS V14.01,2013-02-04 16:32:00,
2013-02-04 10:33:00,45.1,33.3,29.92,South,169,3.0,12.0,63,0.00,,---,0.00,VWS V14.01,2013-02-04 16:33:00,
2013-02-04 10:34:00,45.1,33.3,29.92,South,179,6.0,12.0,63,0.00,,---,0.00,VWS V14.01,2013-02-04 16:34:00,
2013-02-04 10:35:00,45.1,33.3,29.92,SSE,164,4.0,12.0,63,0.00,,---,0.00,VWS V14.01,2013-02-04 16:35:00,
2013-02-04 10:37:00,45.3,33.9,29.91,SSW,208,5.0,12.0,64,0.00,,---,0.00,VWS V14.01,2013-02-04 16:37:00,
2013-02-04 10:38:00,45.3,33.5,29.92,SSE,162,5.0,12.0,63,0.00,,---,0.00,VWS V14.01,2013-02-04 16:38:00,
2013-02-04 10:39:00,45.3,33.5,29.91,South,179,9.0,17.0,63,0.00,,---,0.00,VWS V14.01,2013-02-04 16:39:00,
2013-02-04 10:41:00,45.3,33.5,29.92,SSW,193,3.0,17.0,63,0.00,,---,0.00,VWS V14.01,2013-02-04 16:41:00,
2013-02-04 10:42:00,45.3,33.9,29.92,South,178,7.0,17.0,64,0.00,,---,0.00,VWS V14.01,2013-02-04 16:42:00,
2013-02-04 10:43:00,45.3,33.9,29.92,SSW,202,2.0,17.0,64,0.00,,---,0.00,VWS V14.01,2013-02-04 16:43:00,
2013-02-04 10:44:00,45.3,34.2,29.92,ESE,123,8.0,17.0,65,0.00,,---,0.00,VWS V14.01,2013-02-04 16:44:00,
2013-02-04 10:46:00,45.3,33.5,29.92,South,177,8.0,17.0,63,0.00,,---,0.00,VWS V14.01,2013-02-04 16:46:00,
2013-02-04 10:47:00,45.3,33.9,29.92,SSE,159,5.0,17.0,64,0.00,,---,0.00,VWS V14.01,2013-02-04 16:47:00,
2013-02-04 10:48:00,45.3,34.2,29.92,SE,139,13.0,17.0,65,0.00,,---,0.00,VWS V14.01,2013-02-04 16:48:00,
2013-02-04 10:49:00,45.3,33.9,29.92,SE,144,6.0,18.0,64,0.00,,---,0.00,VWS V14.01,2013-02-04 16:49:00,
2013-02-04 10:51:00,45.3,33.9,29.92,SSE,156,4.0,18.0,64,0.00,,---,0.00,VWS V14.01,2013-02-04 16:51:00,
2013-02-04 10:52:00,45.3,34.2,29.92,SSE,158,4.0,18.0,65,0.00,,---,0.00,VWS V14.01,2013-02-04 16:52:00,
2013-02-04 10:53:00,45.2,34.5,29.92,South,179,4.0,18.0,66,0.00,,---,0.00,VWS V14.01,2013-02-04 16:53:00,
2013-02-04 10:55:00,45.2,34.5,29.92,SSE,157,8.0,18.0,66,0.00,,---,0.00,VWS V14.01,2013-02-04 16:55:00,
2013-02-04 10:56:00,45.2,34.5,29.92,SW,216,5.0,18.0,66,0.00,,---,0.00,VWS V14.01,2013-02-04 16:56:00,
2013-02-04 10:57:00,45.1,34.4,29.92,SE,130,11.0,18.0,66,0.00,,---,0.00,VWS V14.01,2013-02-04 16:57:00,
2013-02-04 10:59:00,45.1,34.4,29.92,SSE,151,7.0,15.0,66,0.00,,---,0.00,VWS V14.01,2013-02-04 16:59:00,
2013-02-04 11:00:00,45.1,34.8,29.92,SSW,193,6.0,15.0,67,0.00,,---,0.00,VWS V14.01,2013-02-04 17:00:00,
2013-02-04 11:01:00,45.0,34.7,29.92,ESE,120,3.0,15.0,67,0.00,,---,0.00,VWS V14.01,2013-02-04 17:01:00,
2013-02-04 11:02:00,45.0,34.7,29.92,SSE,158,6.0,15.0,67,0.00,,---,0.00,VWS V14.01,2013-02-04 17:02:00,
2013-02-04 11:04:00,44.9,34.6,29.92,South,174,1.0,15.0,67,0.00,,---,0.00,VWS V14.01,2013-02-04 17:04:00,
2013-02-04 11:05:00,45.0,34.7,29.92,South,172,6.0,15.0,67,0.00,,---,0.00,VWS V14.01,2013-02-04 17:05:00,
2013-02-04 11:07:00,44.9,34.6,29.92,SW,214,3.0,15.0,67,0.00,,---,0.00,VWS V14.01,2013-02-04 17:07:00,
2013-02-04 11:08:00,44.9,34.6,29.92,SSE,150,10.0,15.0,67,0.00,,---,0.00,VWS V14.01,2013-02-04 17:08:00,
2013-02-04 11:09:00,44.9,34.6,29.92,SW,234,7.0,15.0,67,0.00,,---,0.00,VWS V14.01,2013-02-04 17:09:00,
2013-02-04 11:10:00,44.9,34.6,29.92,SE,133,6.0,15.0,67,0.00,,---,0.00,VWS V14.01,2013-02-04 17:10:00,
2013-02-04 11:12:00,44.9,34.6,29.92,SE,137,7.0,15.0,67,0.00,,---,0.00,VWS V14.01,2013-02-04 17:12:00,
2013-02-04 11:13:00,44.9,34.6,29.92,SSE,156,9.0,15.0,67,0.00,,---,0.00,VWS V14.01,2013-02-04 17:13:00,
2013-02-04 11:14:00,45.0,34.7,29.92,SSW,208,9.0,16.0,67,0.00,,---,0.00,VWS V14.01,2013-02-04 17:14:00,
2013-02-04 11:15:00,45.0,34.7,29.92,SE,138,2.0,16.0,67,0.00,,---,0.00,VWS V14.01,2013-02-04 17:15:00,
2013-02-04 11:17:00,45.0,34.7,29.92,SE,139,3.0,16.0,67,0.00,,---,0.00,VWS V14.01,2013-02-04 17:17:00,
2013-02-04 11:18:00,45.1,34.8,29.92,South,185,7.0,16.0,67,0.00,,---,0.00,VWS V14.01,2013-02-04 17:18:00,
2013-02-04 11:19:00,45.0,35.1,29.92,SSE,152,9.0,16.0,68,0.00,,---,0.00,VWS V14.01,2013-02-04 17:19:00,
2013-02-04 11:20:00,45.0,35.1,29.92,ESE,111,6.0,16.0,68,0.00,,---,0.00,VWS V14.01,2013-02-04 17:20:00,
2013-02-04 11:22:00,45.0,35.1,29.92,SW,214,4.0,16.0,68,0.00,,---,0.00,VWS V14.01,2013-02-04 17:22:00,
2013-02-04 11:23:00,45.0,35.5,29.92,South,178,14.0,16.0,69,0.00,,---,0.00,VWS V14.01,2013-02-04 17:23:00,
2013-02-04 11:24:00,45.0,35.5,29.92,SSE,150,10.0,16.0,69,0.00,,---,0.00,VWS V14.01,2013-02-04 17:24:00,
2013-02-04 11:25:00,44.9,35.4,29.92,SW,227,8.0,16.0,69,0.00,,---,0.00,VWS V14.01,2013-02-04 17:25:00,
2013-02-04 11:27:00,44.8,35.6,29.92,SSE,147,5.0,16.0,70,0.01,,---,0.01,VWS V14.01,2013-02-04 17:27:00,
2013-02-04 11:28:00,44.7,35.9,29.92,SE,138,6.0,12.0,71,0.01,,---,0.01,VWS V14.01,2013-02-04 17:28:00,
2013-02-04 11:29:00,44.6,35.8,29.92,SSE,168,7.0,12.0,71,0.01,,---,0.01,VWS V14.01,2013-02-04 17:29:00,
2013-02-04 11:30:00,44.8,36.0,29.92,SW,214,11.0,16.0,71,0.01,,---,0.01,VWS V14.01,2013-02-04 17:30:00,
2013-02-04 11:31:00,44.5,36.4,29.92,SSE,163,5.0,12.0,73,0.01,,---,0.01,VWS V14.01,2013-02-04 17:31:00,
2013-02-04 11:32:00,44.3,36.5,29.92,South,179,7.0,12.0,74,0.01,,---,0.01,VWS V14.01,2013-02-04 17:32:00,
2013-02-04 11:33:00,44.2,36.5,29.92,SSW,208,3.0,12.0,74,0.01,,---,0.01,VWS V14.01,2013-02-04 17:33:00,
2013-02-04 11:34:00,44.1,36.7,29.91,SE,131,4.0,12.0,75,0.01,,---,0.01,VWS V14.01,2013-02-04 17:34:00,
2013-02-04 11:36:00,44.0,36.9,29.91,SSE,161,4.0,12.0,76,0.01,,---,0.01,VWS V14.01,2013-02-04 17:36:00,
2013-02-04 11:37:00,43.9,36.8,29.91,SE,138,4.0,13.0,76,0.01,,---,0.01,VWS V14.01,2013-02-04 17:37:00,
2013-02-04 11:38:00,43.8,37.1,29.90,SE,128,10.0,15.0,77,0.02,,---,0.02,VWS V14.01,2013-02-04 17:38:00,
2013-02-04 11:39:00,43.7,37.0,29.90,SSE,148,7.0,15.0,77,0.02,,---,0.02,VWS V14.01,2013-02-04 17:39:00,
2013-02-04 11:41:00,43.6,36.9,29.90,SE,127,9.0,15.0,77,0.02,,---,0.02,VWS V14.01,2013-02-04 17:41:00,
2013-02-04 11:42:00,43.6,37.2,29.90,SE,137,6.0,15.0,78,0.02,,---,0.02,VWS V14.01,2013-02-04 17:42:00,
2013-02-04 11:43:00,43.5,37.1,29.90,South,186,5.0,15.0,78,0.02,,---,0.02,VWS V14.01,2013-02-04 17:43:00,
2013-02-04 11:44:00,43.5,37.1,29.90,SSE,158,1.0,15.0,78,0.02,,---,0.02,VWS V14.01,2013-02-04 17:44:00,
2013-02-04 11:47:00,43.3,37.2,29.90,SE,145,7.0,18.0,79,0.02,,---,0.02,VWS V14.01,2013-02-04 17:47:00,
2013-02-04 11:48:00,43.2,37.5,29.90,SSE,167,4.0,18.0,80,0.02,,---,0.02,VWS V14.01,2013-02-04 17:48:00,
2013-02-04 11:50:00,43.1,37.7,29.90,SE,146,9.0,18.0,81,0.02,,---,0.02,VWS V14.01,2013-02-04 17:50:00,
2013-02-04 11:52:00,43.0,37.6,29.90,SE,129,4.0,18.0,81,0.02,,---,0.02,VWS V14.01,2013-02-04 17:52:00,
2013-02-04 11:54:00,42.8,37.7,29.90,SSE,167,3.0,18.0,82,0.02,,---,0.02,VWS V14.01,2013-02-04 17:54:00,
2013-02-04 11:55:00,42.7,37.6,29.90,South,177,5.0,18.0,82,0.02,,---,0.02,VWS V14.01,2013-02-04 17:55:00,
2013-02-04 11:57:00,42.7,37.6,29.89,SE,133,11.0,18.0,82,0.02,,---,0.02,VWS V14.01,2013-02-04 17:57:00,
2013-02-04 11:58:00,42.6,37.8,29.89,SE,140,5.0,6.0,83,0.02,,---,0.02,VWS V14.01,2013-02-04 17:58:00,
2013-02-04 11:59:00,42.6,37.8,29.89,SE,131,8.0,12.0,83,0.02,,---,0.02,VWS V14.01,2013-02-04 17:59:00,
2013-02-04 12:00:00,42.5,37.7,29.88,South,170,11.0,16.0,83,0.02,,---,0.02,VWS V14.01,2013-02-04 18:00:00,
2013-02-04 12:02:00,42.5,37.7,29.88,SSE,164,5.0,16.0,83,0.02,,---,0.02,VWS V14.01,2013-02-04 18:02:00,
2013-02-04 12:03:00,42.5,38.0,29.89,SSE,156,2.0,16.0,84,0.02,,---,0.02,VWS V14.01,2013-02-04 18:03:00,
2013-02-04 12:04:00,42.5,38.0,29.89,South,176,5.0,16.0,84,0.02,,---,0.02,VWS V14.01,2013-02-04 18:04:00,
2013-02-04 12:05:00,42.5,38.0,29.89,SSW,193,4.0,16.0,84,0.02,,---,0.02,VWS V14.01,2013-02-04 18:05:00,
2013-02-04 12:07:00,42.6,38.1,29.89,SSE,165,5.0,16.0,84,0.02,,---,0.02,VWS V14.01,2013-02-04 18:07:00,
2013-02-04 12:08:00,42.6,38.1,29.89,South,183,4.0,16.0,84,0.02,,---,0.02,VWS V14.01,2013-02-04 18:08:00,
2013-02-04 12:09:00,42.7,37.9,29.89,SSE,159,2.0,16.0,83,0.02,,---,0.02,VWS V14.01,2013-02-04 18:09:00,
2013-02-04 12:10:00,42.7,38.2,29.89,SSE,151,9.0,16.0,84,0.02,,---,0.02,VWS V14.01,2013-02-04 18:10:00,
2013-02-04 12:12:00,42.7,38.2,29.89,SSW,210,6.0,16.0,84,0.02,,---,0.02,VWS V14.01,2013-02-04 18:12:00,
2013-02-04 12:13:00,42.7,38.2,29.89,SSE,168,10.0,16.0,84,0.02,,---,0.02,VWS V14.01,2013-02-04 18:13:00,
2013-02-04 12:14:00,42.7,38.2,29.88,South,175,10.0,16.0,84,0.02,,---,0.02,VWS V14.01,2013-02-04 18:14:00,
2013-02-04 12:16:00,42.8,38.3,29.88,SE,145,7.0,16.0,84,0.02,,---,0.02,VWS V14.01,2013-02-04 18:16:00,
2013-02-04 12:18:00,42.9,38.4,29.88,South,191,7.0,16.0,84,0.02,,---,0.02,VWS V14.01,2013-02-04 18:18:00,
2013-02-04 12:19:00,43.0,38.5,29.88,SSE,150,1.0,16.0,84,0.02,,---,0.02,VWS V14.01,2013-02-04 18:19:00,
2013-02-04 12:21:00,43.1,38.6,29.88,SSE,155,6.0,16.0,84,0.02,,---,0.02,VWS V14.01,2013-02-04 18:21:00,
2013-02-04 12:23:00,43.1,38.6,29.88,SE,143,8.0,16.0,84,0.02,,---,0.02,VWS V14.01,2013-02-04 18:23:00,
2013-02-04 12:25:00,43.1,38.3,29.88,SSE,156,3.0,16.0,83,0.02,,---,0.02,VWS V14.01,2013-02-04 18:25:00,
2013-02-04 12:26:00,43.1,38.6,29.88,SSE,154,8.0,16.0,84,0.02,,---,0.02,VWS V14.01,2013-02-04 18:26:00,
2013-02-04 12:28:00,43.1,38.6,29.88,SE,134,8.0,9.0,84,0.01,,---,0.02,VWS V14.01,2013-02-04 18:28:00,
2013-02-04 12:30:00,43.0,38.5,29.88,SE,133,5.0,9.0,84,0.01,,---,0.02,VWS V14.01,2013-02-04 18:30:00,
2013-02-04 12:31:00,43.0,38.5,29.88,SE,125,11.0,11.0,84,0.01,,---,0.02,VWS V14.01,2013-02-04 18:31:00,
2013-02-04 12:33:00,43.0,38.5,29.88,SSE,168,8.0,13.0,84,0.01,,---,0.02,VWS V14.01,2013-02-04 18:33:00,
2013-02-04 12:34:00,43.0,38.5,29.88,SSE,156,3.0,13.0,84,0.01,,---,0.02,VWS V14.01,2013-02-04 18:34:00,
2013-02-04 12:35:00,43.0,38.5,29.88,SSE,167,5.0,13.0,84,0.01,,---,0.02,VWS V14.01,2013-02-04 18:35:00,
2013-02-04 12:36:00,43.0,38.5,29.88,SE,127,3.0,13.0,84,0.01,,---,0.02,VWS V14.01,2013-02-04 18:36:00,
2013-02-04 12:38:00,43.0,38.5,29.88,SSW,202,5.0,13.0,84,0.01,,---,0.02,VWS V14.01,2013-02-04 18:38:00,
2013-02-04 12:39:00,43.0,38.5,29.88,SSE,150,8.0,13.0,84,0.01,,---,0.02,VWS V14.01,2013-02-04 18:39:00,
2013-02-04 12:40:00,43.0,38.5,29.88,South,169,3.0,13.0,84,0.01,,---,0.02,VWS V14.01,2013-02-04 18:40:00,
2013-02-04 12:41:00,43.1,38.6,29.88,SSE,165,3.0,13.0,84,0.01,,---,0.02,VWS V14.01,2013-02-04 18:41:00,
2013-02-04 12:43:00,43.1,38.3,29.88,SE,130,5.0,13.0,83,0.01,,---,0.02,VWS V14.01,2013-02-04 18:43:00,
2013-02-04 12:44:00,43.1,38.3,29.88,SSE,148,6.0,13.0,83,0.01,,---,0.02,VWS V14.01,2013-02-04 18:44:00,
2013-02-04 12:45:00,43.1,38.3,29.87,SSE,151,6.0,13.0,83,0.01,,---,0.02,VWS V14.01,2013-02-04 18:45:00,
2013-02-04 12:46:00,43.1,38.6,29.87,SSW,203,7.0,13.0,84,0.01,,---,0.02,VWS V14.01,2013-02-04 18:46:00,
2013-02-04 12:48:00,43.1,38.3,29.87,SSW,202,2.0,13.0,83,0.01,,---,0.02,VWS V14.01,2013-02-04 18:48:00,
2013-02-04 12:49:00,43.1,38.3,29.87,SE,143,6.0,13.0,83,0.01,,---,0.02,VWS V14.01,2013-02-04 18:49:00,
2013-02-04 12:51:00,43.1,38.3,29.87,SSE,157,8.0,13.0,83,0.01,,---,0.02,VWS V14.01,2013-02-04 18:51:00,
2013-02-04 12:54:00,43.1,38.3,29.87,SE,128,5.0,13.0,83,0.01,,---,0.02,VWS V14.01,2013-02-04 18:54:00,
2013-02-04 12:56:00,43.1,38.6,29.87,SE,133,5.0,13.0,84,0.01,,---,0.02,VWS V14.01,2013-02-04 18:56:00,
2013-02-04 12:59:00,43.0,38.5,29.86,SSE,158,2.0,8.0,84,0.00,,---,0.02,VWS V14.01,2013-02-04 18:59:00,
2013-02-04 13:00:00,43.1,38.6,29.86,SE,136,5.0,13.0,84,0.01,,---,0.02,VWS V14.01,2013-02-04 19:00:00,
2013-02-04 13:01:00,43.0,38.5,29.87,SSE,160,1.0,10.0,84,0.00,,---,0.02,VWS V14.01,2013-02-04 19:01:00,
2013-02-04 13:02:00,42.9,38.4,29.87,SSE,158,2.0,10.0,84,0.00,,---,0.02,VWS V14.01,2013-02-04 19:02:00,
2013-02-04 13:04:00,42.9,38.4,29.87,SW,222,10.0,13.0,84,0.00,,---,0.02,VWS V14.01,2013-02-04 19:04:00,
2013-02-04 13:05:00,42.9,38.4,29.87,South,172,5.0,13.0,84,0.00,,---,0.02,VWS V14.01,2013-02-04 19:05:00,
2013-02-04 13:06:00,42.8,38.3,29.86,SE,134,3.0,13.0,84,0.00,,---,0.02,VWS V14.01,2013-02-04 19:06:00,
2013-02-04 13:07:00,42.8,38.3,29.86,SE,142,7.0,13.0,84,0.00,,---,0.02,VWS V14.01,2013-02-04 19:07:00,
2013-02-04 13:09:00,42.8,38.6,29.86,South,188,1.0,13.0,85,0.00,,---,0.02,VWS V14.01,2013-02-04 19:09:00,
2013-02-04 13:10:00,42.8,38.6,29.86,SSE,149,2.0,13.0,85,0.00,,---,0.02,VWS V14.01,2013-02-04 19:10:00,
2013-02-04 13:11:00,42.8,38.6,29.86,SSE,155,0.0,13.0,85,0.00,,---,0.02,VWS V14.01,2013-02-04 19:11:00,
2013-02-04 13:13:00,42.7,38.5,29.86,ESE,122,5.0,13.0,85,0.00,,---,0.02,VWS V14.01,2013-02-04 19:13:00,
2013-02-04 13:14:00,42.7,38.5,29.87,SSE,159,6.0,13.0,85,0.00,,---,0.02,VWS V14.01,2013-02-04 19:14:00,
2013-02-04 13:15:00,42.7,38.5,29.87,South,176,5.0,13.0,85,0.00,,---,0.02,VWS V14.01,2013-02-04 19:15:00,
2013-02-04 13:17:00,42.7,38.5,29.87,SE,134,2.0,13.0,85,0.00,,---,0.02,VWS V14.01,2013-02-04 19:17:00,
2013-02-04 13:18:00,42.7,38.5,29.87,South,188,5.0,13.0,85,0.00,,---,0.02,VWS V14.01,2013-02-04 19:18:00,
2013-02-04 13:19:00,42.7,38.5,29.87,South,181,5.0,13.0,85,0.00,,---,0.02,VWS V14.01,2013-02-04 19:19:00,
2013-02-04 13:20:00,42.7,38.5,29.87,SSE,149,6.0,13.0,85,0.00,,---,0.02,VWS V14.01,2013-02-04 19:20:00,
2013-02-04 13:22:00,42.8,38.6,29.87,SSW,210,2.0,13.0,85,0.00,,---,0.02,VWS V14.01,2013-02-04 19:22:00,
2013-02-04 13:23:00,42.8,38.6,29.87,SSW,193,10.0,13.0,85,0.00,,---,0.02,VWS V14.01,2013-02-04 19:23:00,
2013-02-04 13:24:00,42.8,38.6,29.87,SSE,162,4.0,13.0,85,0.00,,---,0.02,VWS V14.01,2013-02-04 19:24:00,
2013-02-04 13:25:00,42.8,38.6,29.87,South,174,3.0,13.0,85,0.00,,---,0.02,VWS V14.01,2013-02-04 19:25:00,
2013-02-04 13:27:00,42.8,38.6,29.87,SE,137,4.0,13.0,85,0.00,,---,0.02,VWS V14.01,2013-02-04 19:27:00,
2013-02-04 13:28:00,42.8,38.6,29.87,SE,125,3.0,3.0,85,0.00,,---,0.02,VWS V14.01,2013-02-04 19:28:00,
2013-02-04 13:29:00,42.9,39.0,29.87,SE,145,3.0,7.0,86,0.00,,---,0.02,VWS V14.01,2013-02-04 19:29:00,
2013-02-04 13:30:00,42.9,39.0,29.87,ESE,120,5.0,9.0,86,0.00,,---,0.02,VWS V14.01,2013-02-04 19:30:00,
2013-02-04 13:32:00,42.9,39.0,29.87,SSE,162,0.0,9.0,86,0.00,,---,0.02,VWS V14.01,2013-02-04 19:32:00,
2013-02-04 13:33:00,42.9,39.0,29.87,SSE,160,2.0,9.0,86,0.00,,---,0.02,VWS V14.01,2013-02-04 19:33:00,
2013-02-04 13:34:00,43.0,39.1,29.87,SE,136,1.0,9.0,86,0.00,,---,0.02,VWS V14.01,2013-02-04 19:34:00,
2013-02-04 13:35:00,43.0,39.1,29.87,SE,131,2.0,9.0,86,0.00,,---,0.02,VWS V14.01,2013-02-04 19:35:00,
2013-02-04 13:37:00,43.0,39.1,29.86,SSE,161,13.0,13.0,86,0.00,,---,0.02,VWS V14.01,2013-02-04 19:37:00,
2013-02-04 13:38:00,43.0,39.1,29.87,SW,217,4.0,13.0,86,0.00,,---,0.02,VWS V14.01,2013-02-04 19:38:00,
2013-02-04 13:39:00,43.0,39.1,29.86,SSE,160,5.0,13.0,86,0.00,,---,0.02,VWS V14.01,2013-02-04 19:39:00,
2013-02-04 13:40:00,43.0,39.1,29.86,SE,133,5.0,13.0,86,0.00,,---,0.02,VWS V14.01,2013-02-04 19:40:00,
2013-02-04 13:42:00,43.1,39.2,29.86,SSE,162,3.0,13.0,86,0.00,,---,0.02,VWS V14.01,2013-02-04 19:42:00,
2013-02-04 13:43:00,43.0,39.1,29.86,SSE,162,3.0,13.0,86,0.00,,---,0.02,VWS V14.01,2013-02-04 19:43:00,
2013-02-04 13:44:00,43.1,39.2,29.86,SSE,156,2.0,13.0,86,0.00,,---,0.02,VWS V14.01,2013-02-04 19:44:00,
2013-02-04 13:45:00,43.1,39.2,29.86,SSE,159,2.0,13.0,86,0.00,,---,0.02,VWS V14.01,2013-02-04 19:45:00,
2013-02-04 13:47:00,43.1,39.2,29.86,South,172,6.0,13.0,86,0.00,,---,0.02,VWS V14.01,2013-02-04 19:47:00,
2013-02-04 13:48:00,43.1,39.2,29.86,SSE,166,4.0,13.0,86,0.00,,---,0.02,VWS V14.01,2013-02-04 19:48:00,
2013-02-04 13:49:00,43.2,39.3,29.86,South,182,2.0,13.0,86,0.00,,---,0.02,VWS V14.01,2013-02-04 19:49:00,
2013-02-04 13:51:00,43.2,39.3,29.85,SSE,152,5.0,13.0,86,0.00,,---,0.02,VWS V14.01,2013-02-04 19:51:00,
2013-02-04 13:53:00,43.4,39.5,29.86,South,178,7.0,13.0,86,0.00,,---,0.02,VWS V14.01,2013-02-04 19:53:00,
2013-02-04 13:54:00,43.4,39.5,29.86,ESE,116,4.0,13.0,86,0.00,,---,0.02,VWS V14.01,2013-02-04 19:54:00,
2013-02-04 13:56:00,43.5,39.6,29.85,South,179,5.0,13.0,86,0.00,,---,0.02,VWS V14.01,2013-02-04 19:56:00,
2013-02-04 13:58:00,43.7,39.8,29.85,SSE,156,11.0,11.0,86,0.00,,---,0.02,VWS V14.01,2013-02-04 19:58:00,
2013-02-04 13:59:00,43.7,39.8,29.85,SSE,158,7.0,11.0,86,0.00,,---,0.02,VWS V14.01,2013-02-04 19:59:00,
2013-02-04 14:00:00,43.7,39.8,29.86,SE,131,2.0,13.0,86,0.00,,---,0.02,VWS V14.01,2013-02-04 20:00:00,
2013-02-04 14:02:00,43.8,39.9,29.85,SSE,162,5.0,11.0,86,0.00,,---,0.02,VWS V14.01,2013-02-04 20:02:00,
2013-02-04 14:03:00,43.8,39.9,29.85,SSE,162,5.0,11.0,86,0.00,,---,0.02,VWS V14.01,2013-02-04 20:03:00,
2013-02-04 14:04:00,43.8,39.9,29.85,SE,145,3.0,11.0,86,0.00,,---,0.02,VWS V14.01,2013-02-04 20:04:00,
2013-02-04 14:07:00,43.8,39.9,29.85,South,172,5.0,11.0,86,0.00,,---,0.02,VWS V14.01,2013-02-04 20:07:00,
2013-02-04 14:08:00,43.8,39.9,29.85,SE,126,5.0,11.0,86,0.00,,---,0.02,VWS V14.01,2013-02-04 20:08:00,
2013-02-04 14:09:00,43.9,40.0,29.85,SE,132,6.0,11.0,86,0.00,,---,0.02,VWS V14.01,2013-02-04 20:09:00,
2013-02-04 14:10:00,43.9,40.0,29.85,SE,138,5.0,11.0,86,0.00,,---,0.02,VWS V14.01,2013-02-04 20:10:00,
2013-02-04 14:12:00,44.1,40.2,29.85,SSE,154,1.0,11.0,86,0.00,,---,0.02,VWS V14.01,2013-02-04 20:12:00,
2013-02-04 14:13:00,44.2,40.3,29.85,SSE,152,2.0,11.0,86,0.00,,---,0.02,VWS V14.01,2013-02-04 20:13:00,
2013-02-04 14:14:00,44.3,40.4,29.85,SE,146,3.0,11.0,86,0.00,,---,0.02,VWS V14.01,2013-02-04 20:14:00,
2013-02-04 14:15:00,44.5,40.6,29.85,SSE,154,5.0,11.0,86,0.00,,---,0.02,VWS V14.01,2013-02-04 20:15:00,
2013-02-04 14:17:00,44.7,40.8,29.85,SE,135,4.0,11.0,86,0.00,,---,0.02,VWS V14.01,2013-02-04 20:17:00,
2013-02-04 14:19:00,44.9,40.7,29.85,SE,134,6.0,11.0,85,0.00,,---,0.02,VWS V14.01,2013-02-04 20:19:00,
2013-02-04 14:20:00,45.0,40.8,29.85,SE,145,8.0,11.0,85,0.00,,---,0.02,VWS V14.01,2013-02-04 20:20:00,
2013-02-04 14:22:00,45.0,40.5,29.85,SSE,147,6.0,13.0,84,0.00,,---,0.02,VWS V14.01,2013-02-04 20:22:00,
2013-02-04 14:24:00,44.9,40.4,29.85,ESE,114,4.0,13.0,84,0.00,,---,0.02,VWS V14.01,2013-02-04 20:24:00,
2013-02-04 14:25:00,44.9,40.4,29.85,SSE,159,4.0,13.0,84,0.00,,---,0.02,VWS V14.01,2013-02-04 20:25:00,
2013-02-04 14:27:00,44.8,40.3,29.85,SSE,158,6.0,13.0,84,0.00,,---,0.02,VWS V14.01,2013-02-04 20:27:00,
2013-02-04 14:29:00,44.8,40.6,29.85,SSE,168,6.0,10.0,85,0.00,,---,0.02,VWS V14.01,2013-02-04 20:29:00,
2013-02-04 14:30:00,44.9,40.7,29.85,South,191,5.0,10.0,85,0.00,,---,0.02,VWS V14.01,2013-02-04 20:30:00,
2013-02-04 14:33:00,45.0,40.8,29.85,SSE,168,7.0,12.0,85,0.00,,---,0.02,VWS V14.01,2013-02-04 20:33:00,
2013-02-04 14:34:00,45.1,40.6,29.85,SSE,161,9.0,12.0,84,0.00,,---,0.02,VWS V14.01,2013-02-04 20:34:00,
2013-02-04 14:35:00,45.1,40.6,29.85,South,185,8.0,12.0,84,0.00,,---,0.02,VWS V14.01,2013-02-04 20:35:00,
2013-02-04 14:38:00,45.1,40.6,29.85,SSE,166,4.0,12.0,84,0.00,,---,0.02,VWS V14.01,2013-02-04 20:38:00,
2013-02-04 14:39:00,45.1,40.6,29.85,SSE,164,4.0,12.0,84,0.00,,---,0.02,VWS V14.01,2013-02-04 20:39:00,
2013-02-04 14:40:00,45.1,40.6,29.85,South,188,9.0,12.0,84,0.00,,---,0.02,VWS V14.01,2013-02-04 20:40:00,
2013-02-04 14:41:00,45.1,40.6,29.85,South,184,3.0,12.0,84,0.00,,---,0.02,VWS V14.01,2013-02-04 20:41:00,
2013-02-04 14:43:00,45.4,40.9,29.85,South,191,1.0,12.0,84,0.00,,---,0.02,VWS V14.01,2013-02-04 20:43:00,
2013-02-04 14:44:00,45.5,41.3,29.85,South,182,4.0,12.0,85,0.00,,---,0.02,VWS V14.01,2013-02-04 20:44:00,
2013-02-04 14:45:00,45.6,41.0,29.85,South,173,5.0,12.0,84,0.00,,---,0.02,VWS V14.01,2013-02-04 20:45:00,
2013-02-04 14:48:00,45.7,41.2,29.85,South,182,1.0,12.0,84,0.00,,---,0.02,VWS V14.01,2013-02-04 20:48:00,
2013-02-04 14:49:00,45.8,41.2,29.85,SSE,162,6.0,12.0,84,0.00,,---,0.02,VWS V14.01,2013-02-04 20:49:00,
2013-02-04 14:50:00,45.8,41.2,29.86,South,183,6.0,12.0,84,0.00,,---,0.02,VWS V14.01,2013-02-04 20:50:00,
2013-02-04 14:52:00,45.8,41.2,29.85,South,177,2.0,12.0,84,0.00,,---,0.02,VWS V14.01,2013-02-04 20:52:00,
2013-02-04 14:53:00,45.8,41.2,29.85,SE,133,7.0,12.0,84,0.00,,---,0.02,VWS V14.01,2013-02-04 20:53:00,
2013-02-04 14:54:00,45.8,41.2,29.86,SE,126,4.0,12.0,84,0.00,,---,0.02,VWS V14.01,2013-02-04 20:54:00,
2013-02-04 14:56:00,45.8,41.2,29.85,South,175,3.0,12.0,84,0.00,,---,0.02,VWS V14.01,2013-02-04 20:56:00,
2013-02-04 14:57:00,45.8,41.2,29.85,SSE,147,5.0,12.0,84,0.00,,---,0.02,VWS V14.01,2013-02-04 20:57:00,
2013-02-04 14:58:00,45.8,41.5,29.85,South,187,6.0,9.0,85,0.00,,---,0.02,VWS V14.01,2013-02-04 20:58:00,
2013-02-04 14:59:00,45.8,41.2,29.85,ESE,105,5.0,9.0,84,0.00,,---,0.02,VWS V14.01,2013-02-04 20:59:00,
2013-02-04 15:00:00,45.8,41.2,29.85,South,187,5.0,12.0,84,0.00,,---,0.02,VWS V14.01,2013-02-04 21:00:00,
2013-02-04 15:01:00,45.8,41.2,29.85,SSW,192,5.0,9.0,84,0.00,,---,0.02,VWS V14.01,2013-02-04 21:01:00,
2013-02-04 15:02:00,45.8,41.2,29.85,SE,143,2.0,9.0,84,0.00,,---,0.02,VWS V14.01,2013-02-04 21:02:00,
2013-02-04 15:03:00,45.8,41.2,29.85,SSE,148,4.0,9.0,84,0.00,,---,0.02,VWS V14.01,2013-02-04 21:03:00,
2013-02-04 15:04:00,45.8,41.2,29.85,SE,127,5.0,9.0,84,0.00,,---,0.02,VWS V14.01,2013-02-04 21:04:00,
2013-02-04 15:06:00,45.8,41.2,29.85,SE,131,7.0,9.0,84,0.00,,---,0.02,VWS V14.01,2013-02-04 21:06:00,
2013-02-04 15:07:00,45.7,41.2,29.85,ESE,118,8.0,10.0,84,0.00,,---,0.02,VWS V14.01,2013-02-04 21:07:00,
2013-02-04 15:09:00,45.6,41.0,29.85,SE,134,4.0,11.0,84,0.00,,---,0.02,VWS V14.01,2013-02-04 21:09:00,
2013-02-04 15:10:00,45.6,41.0,29.85,SE,135,8.0,11.0,84,0.00,,---,0.02,VWS V14.01,2013-02-04 21:10:00,
2013-02-04 15:11:00,45.5,41.3,29.85,SE,127,8.0,11.0,85,0.00,,---,0.02,VWS V14.01,2013-02-04 21:11:00,
2013-02-04 15:12:00,45.5,41.3,29.85,SSE,158,4.0,11.0,85,0.00,,---,0.02,VWS V14.01,2013-02-04 21:12:00,
2013-02-04 15:14:00,45.5,41.3,29.85,SE,139,8.0,11.0,85,0.00,,---,0.02,VWS V14.01,2013-02-04 21:14:00,
2013-02-04 15:15:00,45.4,41.2,29.85,SE,128,5.0,11.0,85,0.00,,---,0.02,VWS V14.01,2013-02-04 21:15:00,
2013-02-04 15:16:00,45.4,41.2,29.85,ESE,123,9.0,11.0,85,0.00,,---,0.02,VWS V14.01,2013-02-04 21:16:00,
2013-02-04 15:18:00,45.4,41.2,29.85,SE,135,6.0,12.0,85,0.00,,---,0.02,VWS V14.01,2013-02-04 21:18:00,
2013-02-04 15:19:00,45.4,41.2,29.85,SE,146,7.0,12.0,85,0.00,,---,0.02,VWS V14.01,2013-02-04 21:19:00,
2013-02-04 15:20:00,45.4,41.2,29.85,SSE,162,6.0,12.0,85,0.00,,---,0.02,VWS V14.01,2013-02-04 21:20:00,
2013-02-04 15:22:00,45.4,41.2,29.85,SE,129,8.0,12.0,85,0.00,,---,0.02,VWS V14.01,2013-02-04 21:22:00,
2013-02-04 15:23:00,45.2,41.0,29.85,SSE,165,8.0,14.0,85,0.00,,---,0.02,VWS V14.01,2013-02-04 21:23:00,
2013-02-04 15:24:00,45.1,40.9,29.85,SE,140,12.0,14.0,85,0.00,,---,0.02,VWS V14.01,2013-02-04 21:24:00,
2013-02-04 15:25:00,45.0,40.8,29.85,South,184,8.0,14.0,85,0.00,,---,0.02,VWS V14.01,2013-02-04 21:25:00,
2013-02-04 15:27:00,44.9,41.0,29.85,SE,125,5.0,14.0,86,0.00,,---,0.02,VWS V14.01,2013-02-04 21:27:00,
2013-02-04 15:28:00,44.9,41.0,29.85,SE,137,6.0,6.0,86,0.00,,---,0.02,VWS V14.01,2013-02-04 21:28:00,
2013-02-04 15:29:00,44.9,41.0,29.85,SE,129,6.0,6.0,86,0.00,,---,0.02,VWS V14.01,2013-02-04 21:29:00,
2013-02-04 15:30:00,44.9,41.0,29.85,SSE,153,6.0,14.0,86,0.00,,---,0.02,VWS V14.01,2013-02-04 21:30:00,
2013-02-04 15:31:00,44.9,41.0,29.85,SE,137,8.0,12.0,86,0.00,,---,0.02,VWS V14.01,2013-02-04 21:31:00,
2013-02-04 15:33:00,44.8,40.9,29.85,SE,140,6.0,12.0,86,0.00,,---,0.02,VWS V14.01,2013-02-04 21:33:00,
2013-02-04 15:34:00,44.9,41.3,29.84,SE,133,8.0,12.0,87,0.00,,---,0.02,VWS V14.01,2013-02-04 21:34:00,
2013-02-04 15:36:00,45.0,41.4,29.84,SSE,160,6.0,12.0,87,0.00,,---,0.02,VWS V14.01,2013-02-04 21:36:00,
2013-02-04 15:38:00,45.1,41.5,29.84,South,169,2.0,12.0,87,0.00,,---,0.02,VWS V14.01,2013-02-04 21:38:00,
2013-02-04 15:39:00,45.2,41.3,29.84,SE,137,5.0,12.0,86,0.00,,---,0.02,VWS V14.01,2013-02-04 21:39:00,
2013-02-04 15:41:00,45.2,41.3,29.84,SSE,158,5.0,12.0,86,0.00,,---,0.02,VWS V14.01,2013-02-04 21:41:00,
2013-02-04 15:43:00,45.1,41.2,29.84,SSE,160,9.0,13.0,86,0.00,,---,0.02,VWS V14.01,2013-02-04 21:43:00,
2013-02-04 15:44:00,45.0,41.1,29.84,South,176,7.0,13.0,86,0.00,,---,0.02,VWS V14.01,2013-02-04 21:44:00,
2013-02-04 15:46:00,45.1,41.5,29.84,South,170,5.0,14.0,87,0.00,,---,0.02,VWS V14.01,2013-02-04 21:46:00,
2013-02-04 15:48:00,45.1,41.2,29.83,SSE,162,7.0,14.0,86,0.00,,---,0.02,VWS V14.01,2013-02-04 21:48:00,
2013-02-04 15:49:00,45.1,41.2,29.83,SE,133,7.0,14.0,86,0.00,,---,0.02,VWS V14.01,2013-02-04 21:49:00,
2013-02-04 15:52:00,45.1,41.2,29.83,South,180,8.0,14.0,86,0.00,,---,0.02,VWS V14.01,2013-02-04 21:52:00,
2013-02-04 15:53:00,45.0,41.1,29.83,SE,139,9.0,15.0,86,0.00,,---,0.02,VWS V14.01,2013-02-04 21:53:00,
2013-02-04 15:54:00,45.0,41.1,29.83,SE,136,9.0,15.0,86,0.00,,---,0.02,VWS V14.01,2013-02-04 21:54:00,
2013-02-04 15:57:00,44.9,41.0,29.83,SE,137,6.0,15.0,86,0.00,,---,0.02,VWS V14.01,2013-02-04 21:57:00,
2013-02-04 15:59:00,44.9,41.0,29.83,SSE,160,7.0,11.0,86,0.00,,---,0.02,VWS V14.01,2013-02-04 21:59:00,
2013-02-04 16:00:00,44.9,41.0,29.83,South,170,7.0,11.0,86,0.00,,---,0.02,VWS V14.01,2013-02-04 22:00:00,
2013-02-04 16:03:00,44.9,41.0,29.83,SSE,166,9.0,15.0,86,0.00,,---,0.02,VWS V14.01,2013-02-04 22:03:00,
2013-02-04 16:04:00,44.8,40.9,29.83,SE,129,10.0,15.0,86,0.00,,---,0.02,VWS V14.01,2013-02-04 22:04:00,
2013-02-04 16:05:00,44.8,41.2,29.83,SE,136,10.0,15.0,87,0.00,,---,0.02,VWS V14.01,2013-02-04 22:05:00,
2013-02-04 16:08:00,44.7,41.1,29.83,SE,143,7.0,15.0,87,0.00,,---,0.02,VWS V14.01,2013-02-04 22:08:00,
2013-02-04 16:09:00,44.6,41.0,29.82,SE,131,7.0,15.0,87,0.00,,---,0.02,VWS V14.01,2013-02-04 22:09:00,
2013-02-04 16:10:00,44.6,41.0,29.83,ESE,121,9.0,15.0,87,0.00,,---,0.02,VWS V14.01,2013-02-04 22:10:00,
2013-02-04 16:13:00,44.6,41.0,29.83,SSE,165,6.0,15.0,87,0.00,,---,0.02,VWS V14.01,2013-02-04 22:13:00,
2013-02-04 16:14:00,44.6,41.0,29.83,SSE,154,5.0,15.0,87,0.00,,---,0.02,VWS V14.01,2013-02-04 22:14:00,
2013-02-04 16:15:00,44.6,41.0,29.83,ESE,123,8.0,15.0,87,0.00,,---,0.02,VWS V14.01,2013-02-04 22:15:00,
2013-02-04 16:18:00,44.5,40.9,29.82,SE,130,10.0,15.0,87,0.00,,---,0.02,VWS V14.01,2013-02-04 22:18:00,
2013-02-04 16:19:00,44.5,40.9,29.83,SSE,152,4.0,15.0,87,0.00,,---,0.02,VWS V14.01,2013-02-04 22:19:00,
2013-02-04 16:20:00,44.5,40.9,29.82,SSE,148,5.0,15.0,87,0.00,,---,0.02,VWS V14.01,2013-02-04 22:20:00,
2013-02-04 16:21:00,44.5,40.9,29.82,South,183,4.0,15.0,87,0.00,,---,0.02,VWS V14.01,2013-02-04 22:21:00,
2013-02-04 16:23:00,44.5,40.9,29.82,East,95,7.0,15.0,87,0.00,,---,0.02,VWS V14.01,2013-02-04 22:23:00,
2013-02-04 16:24:00,44.5,40.9,29.83,SSE,153,3.0,15.0,87,0.00,,---,0.02,VWS V14.01,2013-02-04 22:24:00,
2013-02-04 16:25:00,44.5,40.9,29.82,SE,137,11.0,15.0,87,0.00,,---,0.02,VWS V14.01,2013-02-04 22:25:00,
2013-02-04 16:26:00,44.4,40.8,29.82,SE,143,9.0,15.0,87,0.00,,---,0.02,VWS V14.01,2013-02-04 22:26:00,
2013-02-04 16:28:00,44.3,40.7,29.82,SSE,155,5.0,8.0,87,0.00,,---,0.02,VWS V14.01,2013-02-04 22:28:00,
2013-02-04 16:30:00,44.3,40.7,29.82,ESE,112,5.0,9.0,87,0.00,,---,0.02,VWS V14.01,2013-02-04 22:30:00,
2013-02-04 16:31:00,44.2,40.6,29.82,ESE,118,7.0,12.0,87,0.00,,---,0.02,VWS V14.01,2013-02-04 22:31:00,
2013-02-04 16:33:00,44.2,40.6,29.82,SSE,164,3.0,13.0,87,0.00,,---,0.02,VWS V14.01,2013-02-04 22:33:00,
2013-02-04 16:35:00,44.2,40.6,29.83,SE,139,4.0,13.0,87,0.00,,---,0.02,VWS V14.01,2013-02-04 22:35:00,
2013-02-04 16:36:00,44.2,40.6,29.83,SE,135,4.0,13.0,87,0.00,,---,0.02,VWS V14.01,2013-02-04 22:36:00,
2013-02-04 16:38:00,44.1,40.5,29.83,SE,125,5.0,13.0,87,0.00,,---,0.02,VWS V14.01,2013-02-04 22:38:00,
2013-02-04 16:40:00,44.1,40.5,29.83,SSE,160,4.0,13.0,87,0.00,,---,0.02,VWS V14.01,2013-02-04 22:40:00,
2013-02-04 16:41:00,44.0,40.4,29.83,SE,126,5.0,13.0,87,0.00,,---,0.02,VWS V14.01,2013-02-04 22:41:00,
2013-02-04 16:42:00,44.0,40.7,29.83,SSW,209,4.0,13.0,88,0.00,,---,0.02,VWS V14.01,2013-02-04 22:42:00,
2013-02-04 16:43:00,43.9,40.6,29.83,SE,135,2.0,13.0,88,0.00,,---,0.02,VWS V14.01,2013-02-04 22:43:00,
2013-02-04 16:45:00,43.9,40.6,29.83,SE,135,4.0,13.0,88,0.00,,---,0.02,VWS V14.01,2013-02-04 22:45:00,
2013-02-04 16:46:00,43.8,40.5,29.83,SE,142,5.0,13.0,88,0.00,,---,0.02,VWS V14.01,2013-02-04 22:46:00,
2013-02-04 16:47:00,43.8,40.5,29.83,SSE,150,4.0,13.0,88,0.00,,---,0.02,VWS V14.01,2013-02-04 22:47:00,
2013-02-04 16:48:00,43.7,40.4,29.83,SE,135,6.0,13.0,88,0.00,,---,0.02,VWS V14.01,2013-02-04 22:48:00,
2013-02-04 16:50:00,43.7,40.4,29.83,ESE,121,4.0,13.0,88,0.00,,---,0.02,VWS V14.01,2013-02-04 22:50:00,
2013-02-04 16:51:00,43.7,40.4,29.83,SE,130,3.0,13.0,88,0.00,,---,0.02,VWS V14.01,2013-02-04 22:51:00,
2013-02-04 16:52:00,43.7,40.4,29.83,ESE,116,4.0,13.0,88,0.00,,---,0.02,VWS V14.01,2013-02-04 22:52:00,
2013-02-04 16:54:00,43.6,40.3,29.83,SSE,150,10.0,13.0,88,0.00,,---,0.02,VWS V14.01,2013-02-04 22:54:00,
2013-02-04 16:55:00,43.6,40.3,29.83,SE,127,7.0,13.0,88,0.00,,---,0.02,VWS V14.01,2013-02-04 22:55:00,
2013-02-04 16:56:00,43.6,40.3,29.83,SE,133,8.0,13.0,88,0.00,,---,0.02,VWS V14.01,2013-02-04 22:56:00,
2013-02-04 16:57:00,43.6,40.3,29.83,SSE,154,9.0,13.0,88,0.00,,---,0.02,VWS V14.01,2013-02-04 22:57:00,
2013-02-04 16:59:00,43.6,40.3,29.83,SE,145,5.0,8.0,88,0.00,,---,0.02,VWS V14.01,2013-02-04 22:59:00,
2013-02-04 17:00:00,43.5,40.2,29.83,SE,136,3.0,8.0,88,0.00,,---,0.02,VWS V14.01,2013-02-04 23:00:00,
2013-02-04 17:01:00,43.5,40.2,29.83,SSE,160,4.0,8.0,88,0.00,,---,0.02,VWS V14.01,2013-02-04 23:01:00,
2013-02-04 17:03:00,43.4,40.1,29.83,SE,141,6.0,8.0,88,0.00,,---,0.02,VWS V14.01,2013-02-04 23:03:00,
2013-02-04 17:04:00,43.4,40.1,29.83,SSE,161,4.0,8.0,88,0.00,,---,0.02,VWS V14.01,2013-02-04 23:04:00,
2013-02-04 17:05:00,43.3,40.0,29.83,SE,134,4.0,9.0,88,0.00,,---,0.02,VWS V14.01,2013-02-04 23:05:00,
2013-02-04 17:07:00,43.3,40.3,29.83,SE,129,5.0,9.0,89,0.00,,---,0.02,VWS V14.01,2013-02-04 23:07:00,
2013-02-04 17:08:00,43.3,40.3,29.83,SE,139,5.0,9.0,89,0.00,,---,0.02,VWS V14.01,2013-02-04 23:08:00,
2013-02-04 17:09:00,43.3,40.3,29.83,SE,141,5.0,9.0,89,0.00,,---,0.02,VWS V14.01,2013-02-04 23:09:00,
2013-02-04 17:10:00,43.2,40.2,29.83,SSE,156,3.0,9.0,89,0.00,,---,0.02,VWS V14.01,2013-02-04 23:10:00,
2013-02-04 17:12:00,43.1,40.1,29.83,SE,141,5.0,9.0,89,0.00,,---,0.02,VWS V14.01,2013-02-04 23:12:00,
2013-02-04 17:13:00,43.1,40.1,29.83,SE,144,3.0,9.0,89,0.00,,---,0.02,VWS V14.01,2013-02-04 23:13:00,
2013-02-04 17:14:00,43.1,40.1,29.83,South,175,2.0,9.0,89,0.00,,---,0.02,VWS V14.01,2013-02-04 23:14:00,
2013-02-04 17:15:00,43.0,40.0,29.83,SSE,150,3.0,9.0,89,0.00,,---,0.02,VWS V14.01,2013-02-04 23:15:00,
2013-02-04 17:17:00,43.0,40.0,29.83,SSE,158,4.0,9.0,89,0.00,,---,0.02,VWS V14.01,2013-02-04 23:17:00,
2013-02-04 17:18:00,43.0,40.0,29.83,SSE,148,4.0,9.0,89,0.00,,---,0.02,VWS V14.01,2013-02-04 23:18:00,
2013-02-04 17:19:00,43.0,40.0,29.83,ESE,123,5.0,9.0,89,0.00,,---,0.02,VWS V14.01,2013-02-04 23:19:00,
2013-02-04 17:21:00,42.9,39.9,29.83,SSE,162,2.0,9.0,89,0.00,,---,0.02,VWS V14.01,2013-02-04 23:21:00,
2013-02-04 17:22:00,42.9,40.2,29.84,SE,124,4.0,9.0,90,0.00,,---,0.02,VWS V14.01,2013-02-04 23:22:00,
2013-02-04 17:23:00,42.9,40.2,29.83,SE,124,2.0,9.0,90,0.00,,---,0.02,VWS V14.01,2013-02-04 23:23:00,
2013-02-04 17:24:00,42.9,40.2,29.84,SSE,156,5.0,9.0,90,0.00,,---,0.02,VWS V14.01,2013-02-04 23:24:00,
2013-02-04 17:26:00,42.9,40.2,29.84,SE,138,4.0,9.0,90,0.00,,---,0.02,VWS V14.01,2013-02-04 23:26:00,
2013-02-04 17:28:00,42.9,40.2,29.84,SE,145,3.0,4.0,90,0.00,,---,0.02,VWS V14.01,2013-02-04 23:28:00,
2013-02-04 17:30:00,42.8,40.1,29.84,SE,127,5.0,8.0,90,0.00,,---,0.02,VWS V14.01,2013-02-04 23:30:00,
2013-02-04 17:31:00,42.8,40.1,29.84,SE,143,4.0,8.0,90,0.00,,---,0.02,VWS V14.01,2013-02-04 23:31:00,
2013-02-04 17:33:00,42.7,40.0,29.84,SE,129,3.0,8.0,90,0.00,,---,0.02,VWS V14.01,2013-02-04 23:33:00,
2013-02-04 17:35:00,42.7,40.0,29.84,SE,135,4.0,8.0,90,0.00,,---,0.02,VWS V14.01,2013-02-04 23:35:00,
2013-02-04 17:36:00,42.6,39.9,29.84,ESE,122,5.0,8.0,90,0.00,,---,0.02,VWS V14.01,2013-02-04 23:36:00,
2013-02-04 17:38:00,42.5,39.8,29.84,SE,132,6.0,11.0,90,0.00,,---,0.02,VWS V14.01,2013-02-04 23:38:00,
2013-02-04 17:40:00,42.4,39.7,29.84,SSE,147,1.0,11.0,90,0.00,,---,0.02,VWS V14.01,2013-02-04 23:40:00,
2013-02-04 17:41:00,42.4,39.7,29.84,SE,126,4.0,11.0,90,0.00,,---,0.02,VWS V14.01,2013-02-04 23:41:00,
2013-02-04 17:43:00,42.3,39.6,29.84,SE,145,8.0,11.0,90,0.00,,---,0.02,VWS V14.01,2013-02-04 23:43:00,
2013-02-04 17:44:00,42.3,39.6,29.84,SE,129,5.0,11.0,90,0.00,,---,0.02,VWS V14.01,2013-02-04 23:44:00,
2013-02-04 17:45:00,42.3,39.9,29.84,SE,131,5.0,11.0,91,0.00,,---,0.02,VWS V14.01,2013-02-04 23:45:00,
2013-02-04 17:46:00,42.3,39.9,29.84,SSE,150,4.0,11.0,91,0.00,,---,0.02,VWS V14.01,2013-02-04 23:46:00,
2013-02-04 17:48:00,42.3,39.9,29.84,SE,141,4.0,11.0,91,0.00,,---,0.02,VWS V14.01,2013-02-04 23:48:00,
2013-02-04 17:49:00,42.3,39.9,29.84,ESE,120,6.0,11.0,91,0.00,,---,0.02,VWS V14.01,2013-02-04 23:49:00,
2013-02-04 17:50:00,42.3,39.9,29.84,SE,139,4.0,11.0,91,0.00,,---,0.02,VWS V14.01,2013-02-04 23:50:00,
2013-02-04 17:51:00,42.3,39.9,29.84,SE,139,2.0,11.0,91,0.00,,---,0.02,VWS V14.01,2013-02-04 23:51:00,
2013-02-04 17:53:00,42.1,39.7,29.84,SSE,164,3.0,11.0,91,0.00,,---,0.02,VWS V14.01,2013-02-04 23:53:00,
2013-02-04 17:54:00,42.1,39.7,29.84,SE,143,5.0,11.0,91,0.00,,---,0.02,VWS V14.01,2013-02-04 23:54:00,
2013-02-04 17:55:00,42.0,39.6,29.84,SE,143,2.0,11.0,91,0.00,,---,0.02,VWS V14.01,2013-02-04 23:55:00,
2013-02-04 17:56:00,41.9,39.5,29.84,SE,133,2.0,11.0,91,0.00,,---,0.02,VWS V14.01,2013-02-04 23:56:00,
2013-02-04 17:59:00,41.9,39.5,29.84,SE,143,4.0,7.0,91,0.00,,---,0.02,VWS V14.01,2013-02-04 23:59:00,
2013-02-04 18:00:00,41.9,39.5,29.85,South,169,3.0,7.0,91,0.00,,---,0.02,VWS V14.01,2013-02-05 00:00:00,
2013-02-04 18:02:00,41.9,39.8,29.85,SSE,148,4.0,7.0,92,0.00,,---,0.02,VWS V14.01,2013-02-05 00:02:00,
2013-02-04 18:04:00,42.0,39.8,29.85,SE,144,2.0,7.0,92,0.00,,---,0.02,VWS V14.01,2013-02-05 00:04:00,
2013-02-04 18:06:00,42.0,39.8,29.85,SE,140,6.0,7.0,92,0.00,,---,0.02,VWS V14.01,2013-02-05 00:06:00,
2013-02-04 18:07:00,42.1,40.0,29.85,South,170,1.0,8.0,92,0.00,,---,0.02,VWS V14.01,2013-02-05 00:07:00,
2013-02-04 18:09:00,42.1,40.0,29.85,SE,126,2.0,8.0,92,0.00,,---,0.02,VWS V14.01,2013-02-05 00:09:00,
2013-02-04 18:11:00,42.1,40.0,29.85,SSE,148,2.0,8.0,92,0.00,,---,0.02,VWS V14.01,2013-02-05 00:11:00,
2013-02-04 18:12:00,42.1,40.0,29.85,SE,142,5.0,8.0,92,0.00,,---,0.02,VWS V14.01,2013-02-05 00:12:00,
2013-02-04 18:14:00,42.2,40.0,29.85,SSE,152,4.0,8.0,92,0.00,,---,0.02,VWS V14.01,2013-02-05 00:14:00,
2013-02-04 18:16:00,42.2,40.0,29.85,SE,143,6.0,10.0,92,0.00,,---,0.02,VWS V14.01,2013-02-05 00:16:00,
2013-02-04 18:17:00,42.2,40.0,29.85,SE,135,4.0,10.0,92,0.00,,---,0.02,VWS V14.01,2013-02-05 00:17:00,
2013-02-04 18:19:00,42.3,40.2,29.85,South,191,4.0,10.0,92,0.00,,---,0.02,VWS V14.01,2013-02-05 00:19:00,
2013-02-04 18:20:00,42.3,40.2,29.85,South,191,3.0,10.0,92,0.00,,---,0.02,VWS V14.01,2013-02-05 00:20:00,
2013-02-04 18:21:00,42.3,40.2,29.85,WNW,290,2.0,10.0,92,0.00,,---,0.02,VWS V14.01,2013-02-05 00:21:00,
2013-02-04 18:22:00,42.3,40.2,29.85,SE,131,5.0,10.0,92,0.00,,---,0.02,VWS V14.01,2013-02-05 00:22:00,
2013-02-04 18:24:00,42.4,40.2,29.85,ESE,116,5.0,10.0,92,0.00,,---,0.02,VWS V14.01,2013-02-05 00:24:00,
2013-02-04 18:25:00,42.4,40.2,29.85,SSW,207,6.0,10.0,92,0.00,,---,0.02,VWS V14.01,2013-02-05 00:25:00,
2013-02-04 18:26:00,42.4,40.2,29.85,ESE,118,3.0,10.0,92,0.00,,---,0.02,VWS V14.01,2013-02-05 00:26:00,
2013-02-04 18:27:00,42.4,40.2,29.85,SE,134,1.0,10.0,92,0.00,,---,0.02,VWS V14.01,2013-02-05 00:27:00,
2013-02-04 18:30:00,42.4,40.2,29.85,SE,139,2.0,6.0,92,0.00,,---,0.02,VWS V14.01,2013-02-05 00:30:00,
2013-02-04 18:31:00,42.4,40.2,29.86,South,182,3.0,7.0,92,0.00,,---,0.02,VWS V14.01,2013-02-05 00:31:00,
2013-02-04 18:32:00,42.5,40.3,29.85,SSE,152,3.0,8.0,92,0.00,,---,0.02,VWS V14.01,2013-02-05 00:32:00,
2013-02-04 18:35:00,42.5,40.3,29.85,SSW,207,2.0,8.0,92,0.00,,---,0.02,VWS V14.01,2013-02-05 00:35:00,
2013-02-04 18:37:00,42.6,40.4,29.85,SSE,147,5.0,8.0,92,0.00,,---,0.02,VWS V14.01,2013-02-05 00:37:00,
2013-02-04 18:40:00,42.7,40.5,29.86,SSE,155,2.0,9.0,92,0.00,,---,0.02,VWS V14.01,2013-02-05 00:40:00,
2013-02-04 18:41:00,42.7,40.5,29.86,SE,143,3.0,9.0,92,0.00,,---,0.02,VWS V14.01,2013-02-05 00:41:00,
2013-02-04 18:42:00,42.7,40.5,29.85,ESE,118,5.0,9.0,92,0.00,,---,0.02,VWS V14.01,2013-02-05 00:42:00,
2013-02-04 18:45:00,42.7,40.8,29.85,SE,140,4.0,9.0,93,0.00,,---,0.02,VWS V14.01,2013-02-05 00:45:00,
2013-02-04 18:46:00,42.7,40.5,29.86,SE,132,3.0,9.0,92,0.00,,---,0.02,VWS V14.01,2013-02-05 00:46:00,
2013-02-04 18:47:00,42.7,40.5,29.86,SE,132,3.0,9.0,92,0.00,,---,0.02,VWS V14.01,2013-02-05 00:47:00,
2013-02-04 18:50:00,42.8,40.6,29.86,SE,127,3.0,9.0,92,0.00,,---,0.02,VWS V14.01,2013-02-05 00:50:00,
2013-02-04 18:51:00,42.8,40.6,29.86,SSW,197,3.0,9.0,92,0.00,,---,0.02,VWS V14.01,2013-02-05 00:51:00,
2013-02-04 18:52:00,42.8,40.6,29.86,SSW,208,10.0,10.0,92,0.00,,---,0.02,VWS V14.01,2013-02-05 00:52:00,
2013-02-04 18:55:00,42.9,41.0,29.86,SW,224,3.0,10.0,93,0.00,,---,0.02,VWS V14.01,2013-02-05 00:55:00,
2013-02-04 18:57:00,42.9,41.0,29.86,ESE,114,3.0,10.0,93,0.00,,---,0.02,VWS V14.01,2013-02-05 00:57:00,
2013-02-04 19:00:00,42.9,41.0,29.86,South,185,3.0,10.0,93,0.00,,---,0.02,VWS V14.01,2013-02-05 01:00:00,
2013-02-04 19:01:00,43.0,41.1,29.86,South,179,6.0,10.0,93,0.00,,---,0.02,VWS V14.01,2013-02-05 01:01:00,
2013-02-04 19:02:00,43.0,41.1,29.86,South,191,2.0,10.0,93,0.00,,---,0.02,VWS V14.01,2013-02-05 01:02:00,
2013-02-04 19:03:00,43.0,41.1,29.86,South,191,2.0,10.0,93,0.00,,---,0.02,VWS V14.01,2013-02-05 01:03:00,
2013-02-04 19:06:00,43.0,41.1,29.86,SSW,196,7.0,10.0,93,0.00,,---,0.02,VWS V14.01,2013-02-05 01:06:00,
2013-02-04 19:07:00,43.0,41.1,29.86,SSW,210,6.0,11.0,93,0.00,,---,0.02,VWS V14.01,2013-02-05 01:07:00,
2013-02-04 19:08:00,43.0,41.1,29.86,SSW,208,5.0,11.0,93,0.00,,---,0.02,VWS V14.01,2013-02-05 01:08:00,
2013-02-04 19:11:00,43.0,41.1,29.86,South,191,3.0,11.0,93,0.00,,---,0.02,VWS V14.01,2013-02-05 01:11:00,
2013-02-04 19:13:00,43.0,41.1,29.86,SSE,156,7.0,11.0,93,0.00,,---,0.02,VWS V14.01,2013-02-05 01:13:00,
2013-02-04 19:16:00,43.0,41.1,29.85,SSE,166,6.0,11.0,93,0.00,,---,0.02,VWS V14.01,2013-02-05 01:16:00,
2013-02-04 19:18:00,43.0,40.8,29.86,SSW,200,7.0,11.0,92,0.00,,---,0.02,VWS V14.01,2013-02-05 01:18:00,
2013-02-04 19:21:00,42.9,40.7,29.86,SE,131,0.0,11.0,92,0.00,,---,0.02,VWS V14.01,2013-02-05 01:21:00,
2013-02-04 19:23:00,42.8,40.6,29.86,SW,233,2.0,11.0,92,0.00,,---,0.02,VWS V14.01,2013-02-05 01:23:00,
2013-02-04 19:26:00,42.7,40.8,29.86,SE,143,0.0,11.0,93,0.00,,---,0.02,VWS V14.01,2013-02-05 01:26:00,
2013-02-04 19:28:00,42.8,40.6,29.86,SSE,163,2.0,3.0,92,0.00,,---,0.02,VWS V14.01,2013-02-05 01:28:00,
2013-02-04 19:30:00,42.8,40.6,29.86,SSE,166,3.0,11.0,92,0.00,,---,0.02,VWS V14.01,2013-02-05 01:30:00,
2013-02-04 19:31:00,42.7,40.5,29.86,South,178,2.0,3.0,92,0.00,,---,0.02,VWS V14.01,2013-02-05 01:31:00,
2013-02-04 19:33:00,42.7,40.5,29.86,SSW,197,5.0,8.0,92,0.00,,---,0.02,VWS V14.01,2013-02-05 01:33:00,
2013-02-04 19:34:00,42.7,40.5,29.86,SSW,210,1.0,8.0,92,0.00,,---,0.02,VWS V14.01,2013-02-05 01:34:00,
2013-02-04 19:36:00,42.7,40.5,29.86,SSE,149,0.0,8.0,92,0.00,,---,0.02,VWS V14.01,2013-02-05 01:36:00,
2013-02-04 19:38:00,42.6,40.4,29.86,WSW,239,1.0,8.0,92,0.00,,---,0.02,VWS V14.01,2013-02-05 01:38:00,
2013-02-04 19:39:00,42.6,40.4,29.86,WSW,239,1.0,8.0,92,0.00,,---,0.02,VWS V14.01,2013-02-05 01:39:00,
2013-02-04 19:42:00,42.6,40.4,29.87,SSW,199,4.0,8.0,92,0.00,,---,0.02,VWS V14.01,2013-02-05 01:42:00,
2013-02-04 19:43:00,42.5,40.6,29.87,SSW,199,3.0,8.0,93,0.00,,---,0.02,VWS V14.01,2013-02-05 01:43:00,
2013-02-04 19:44:00,42.5,40.6,29.87,SSW,202,5.0,8.0,93,0.00,,---,0.02,VWS V14.01,2013-02-05 01:44:00,
2013-02-04 19:47:00,42.4,40.5,29.87,SSE,167,1.0,8.0,93,0.00,,---,0.02,VWS V14.01,2013-02-05 01:47:00,
2013-02-04 19:48:00,42.4,40.5,29.87,SSE,167,0.0,8.0,93,0.00,,---,0.02,VWS V14.01,2013-02-05 01:48:00,
2013-02-04 19:49:00,42.4,40.5,29.87,SSE,167,5.0,8.0,93,0.00,,---,0.02,VWS V14.01,2013-02-05 01:49:00,
2013-02-04 19:52:00,42.4,40.5,29.87,SSW,195,1.0,8.0,93,0.00,,---,0.02,VWS V14.01,2013-02-05 01:52:00,
2013-02-04 19:53:00,42.3,40.4,29.87,SW,222,0.0,8.0,93,0.00,,---,0.02,VWS V14.01,2013-02-05 01:53:00,
2013-02-04 19:54:00,42.3,40.4,29.88,SW,225,0.0,8.0,93,0.00,,---,0.02,VWS V14.01,2013-02-05 01:54:00,
2013-02-04 19:57:00,42.2,40.3,29.89,NW,317,6.0,8.0,93,0.00,,---,0.02,VWS V14.01,2013-02-05 01:57:00,
2013-02-04 19:58:00,42.0,39.8,29.89,NW,306,8.0,9.0,92,0.00,,---,0.02,VWS V14.01,2013-02-05 01:58:00,
2013-02-04 19:59:00,41.9,39.8,29.89,NW,314,5.0,9.0,92,0.00,,---,0.02,VWS V14.01,2013-02-05 01:59:00,
2013-02-04 20:00:00,42.0,39.8,29.89,NW,320,5.0,8.0,92,0.00,,---,0.02,VWS V14.01,2013-02-05 02:00:00,
2013-02-04 20:02:00,42.0,40.1,29.89,NW,306,2.0,10.0,93,0.00,,---,0.02,VWS V14.01,2013-02-05 02:02:00,
2013-02-04 20:03:00,42.1,40.2,29.89,NW,306,2.0,10.0,93,0.00,,---,0.02,VWS V14.01,2013-02-05 02:03:00,
2013-02-04 20:04:00,42.2,40.3,29.89,NW,306,1.0,10.0,93,0.00,,---,0.02,VWS V14.01,2013-02-05 02:04:00,
2013-02-04 20:07:00,42.2,40.3,29.90,NW,306,2.0,10.0,93,0.00,,---,0.02,VWS V14.01,2013-02-05 02:07:00,
2013-02-04 20:09:00,42.2,40.3,29.90,NW,306,0.0,10.0,93,0.00,,---,0.02,VWS V14.01,2013-02-05 02:09:00,
2013-02-04 20:12:00,42.3,40.7,29.89,NW,306,0.0,10.0,94,0.00,,---,0.02,VWS V14.01,2013-02-05 02:12:00,
2013-02-04 20:14:00,42.4,40.8,29.90,NW,306,0.0,10.0,94,0.00,,---,0.02,VWS V14.01,2013-02-05 02:14:00,
2013-02-04 20:15:00,42.4,40.8,29.90,NW,306,0.0,10.0,94,0.00,,---,0.02,VWS V14.01,2013-02-05 02:15:00,
2013-02-04 20:18:00,42.4,40.8,29.89,NW,306,0.0,10.0,94,0.00,,---,0.02,VWS V14.01,2013-02-05 02:18:00,
2013-02-04 20:19:00,42.4,40.8,29.90,NW,306,0.0,10.0,94,0.00,,---,0.02,VWS V14.01,2013-02-05 02:19:00,
2013-02-04 20:20:00,42.4,40.8,29.90,NW,306,0.0,10.0,94,0.00,,---,0.02,VWS V14.01,2013-02-05 02:20:00,
2013-02-04 20:23:00,42.5,40.9,29.90,NW,306,0.0,10.0,94,0.00,,---,0.02,VWS V14.01,2013-02-05 02:23:00,
2013-02-04 20:24:00,42.5,40.9,29.90,NW,306,0.0,10.0,94,0.00,,---,0.02,VWS V14.01,2013-02-05 02:24:00,
2013-02-04 20:25:00,42.5,40.9,29.90,NW,306,0.0,10.0,94,0.00,,---,0.02,VWS V14.01,2013-02-05 02:25:00,
2013-02-04 20:28:00,42.7,41.1,29.90,NW,306,0.0,0.0,94,0.00,,---,0.02,VWS V14.01,2013-02-05 02:28:00,
2013-02-04 20:29:00,42.8,41.2,29.90,NW,306,0.0,0.0,94,0.00,,---,0.02,VWS V14.01,2013-02-05 02:29:00,
2013-02-04 20:30:00,42.8,41.2,29.90,NW,306,0.0,0.0,94,0.00,,---,0.02,VWS V14.01,2013-02-05 02:30:00,
2013-02-04 20:33:00,42.6,41.0,29.89,NW,306,1.0,1.0,94,0.00,,---,0.02,VWS V14.01,2013-02-05 02:33:00,
2013-02-04 20:34:00,42.3,40.4,29.90,NW,306,1.0,2.0,93,0.00,,---,0.02,VWS V14.01,2013-02-05 02:34:00,
2013-02-04 20:35:00,42.2,40.3,29.90,NW,306,1.0,2.0,93,0.00,,---,0.02,VWS V14.01,2013-02-05 02:35:00,
2013-02-04 20:38:00,41.8,39.9,29.89,NW,306,0.0,2.0,93,0.00,,---,0.02,VWS V14.01,2013-02-05 02:38:00,
2013-02-04 20:40:00,41.8,40.2,29.89,NW,306,0.0,2.0,94,0.00,,---,0.02,VWS V14.01,2013-02-05 02:40:00,
2013-02-04 20:43:00,41.8,40.2,29.90,NW,306,0.0,2.0,94,0.00,,---,0.02,VWS V14.01,2013-02-05 02:43:00,
2013-02-04 20:45:00,41.9,40.3,29.90,NW,306,0.0,2.0,94,0.00,,---,0.02,VWS V14.01,2013-02-05 02:45:00,
2013-02-04 20:48:00,42.2,40.6,29.90,NW,306,0.0,2.0,94,0.00,,---,0.02,VWS V14.01,2013-02-05 02:48:00,
2013-02-04 20:50:00,42.4,40.8,29.90,NW,306,0.0,2.0,94,0.00,,---,0.02,VWS V14.01,2013-02-05 02:50:00,
2013-02-04 20:51:00,42.4,40.8,29.90,NW,306,0.0,2.0,94,0.00,,---,0.02,VWS V14.01,2013-02-05 02:51:00,
2013-02-04 20:53:00,42.5,40.9,29.90,NW,306,0.0,2.0,94,0.00,,---,0.02,VWS V14.01,2013-02-05 02:53:00,
2013-02-04 20:55:00,42.4,40.8,29.90,NW,306,0.0,2.0,94,0.00,,---,0.02,VWS V14.01,2013-02-05 02:55:00,
2013-02-04 20:56:00,42.3,40.7,29.90,NW,306,0.0,2.0,94,0.00,,---,0.02,VWS V14.01,2013-02-05 02:56:00,
2013-02-04 20:58:00,42.2,40.6,29.90,NW,306,0.0,0.0,94,0.00,,---,0.02,VWS V14.01,2013-02-05 02:58:00,
2013-02-04 21:00:00,42.2,40.6,29.90,NW,306,0.0,2.0,94,0.00,,---,0.02,VWS V14.01,2013-02-05 03:00:00,
2013-02-04 21:01:00,42.0,40.4,29.90,NW,306,0.0,0.0,94,0.00,,---,0.02,VWS V14.01,2013-02-05 03:01:00,
2013-02-04 21:03:00,42.0,40.4,29.90,NW,306,0.0,0.0,94,0.00,,---,0.02,VWS V14.01,2013-02-05 03:03:00,
2013-02-04 21:06:00,42.0,40.4,29.90,NW,306,0.0,0.0,94,0.00,,---,0.02,VWS V14.01,2013-02-05 03:06:00,
2013-02-04 21:08:00,41.9,40.3,29.90,NW,306,0.0,0.0,94,0.00,,---,0.02,VWS V14.01,2013-02-05 03:08:00,
2013-02-04 21:11:00,41.8,40.2,29.90,NW,306,0.0,0.0,94,0.00,,---,0.02,VWS V14.01,2013-02-05 03:11:00,
2013-02-04 21:13:00,41.8,40.2,29.90,NW,306,0.0,0.0,94,0.00,,---,0.02,VWS V14.01,2013-02-05 03:13:00,
2013-02-04 21:16:00,41.9,40.6,29.90,NW,306,0.0,0.0,95,0.00,,---,0.02,VWS V14.01,2013-02-05 03:16:00,
2013-02-04 21:18:00,42.0,40.7,29.90,NW,306,0.0,0.0,95,0.00,,---,0.02,VWS V14.01,2013-02-05 03:18:00,
2013-02-04 21:21:00,42.1,40.8,29.90,NW,306,0.0,0.0,95,0.00,,---,0.02,VWS V14.01,2013-02-05 03:21:00,
2013-02-04 21:23:00,42.1,40.8,29.90,NW,306,0.0,0.0,95,0.00,,---,0.02,VWS V14.01,2013-02-05 03:23:00,
2013-02-04 21:26:00,42.1,40.8,29.90,NW,306,0.0,0.0,95,0.00,,---,0.02,VWS V14.01,2013-02-05 03:26:00,
2013-02-04 21:29:00,42.0,40.7,29.90,NW,306,1.0,2.0,95,0.00,,---,0.02,VWS V14.01,2013-02-05 03:29:00,
2013-02-04 21:30:00,42.0,40.7,29.90,NW,306,0.0,0.0,95,0.00,,---,0.02,VWS V14.01,2013-02-05 03:30:00,
2013-02-04 21:31:00,42.0,40.7,29.90,NW,306,0.0,2.0,95,0.00,,---,0.02,VWS V14.01,2013-02-05 03:31:00,
2013-02-04 21:32:00,42.0,40.7,29.90,NW,306,0.0,2.0,95,0.00,,---,0.02,VWS V14.01,2013-02-05 03:32:00,
2013-02-04 21:34:00,42.0,40.7,29.90,NW,306,0.0,2.0,95,0.00,,---,0.02,VWS V14.01,2013-02-05 03:34:00,
2013-02-04 21:36:00,42.0,40.7,29.90,NW,306,0.0,2.0,95,0.00,,---,0.02,VWS V14.01,2013-02-05 03:36:00,
2013-02-04 21:37:00,42.0,40.7,29.90,NW,306,0.0,2.0,95,0.00,,---,0.02,VWS V14.01,2013-02-05 03:37:00,
2013-02-04 21:39:00,42.2,40.9,29.90,NW,306,0.0,2.0,95,0.00,,---,0.02,VWS V14.01,2013-02-05 03:39:00,
2013-02-04 21:42:00,42.3,41.0,29.90,NW,306,0.0,2.0,95,0.00,,---,0.02,VWS V14.01,2013-02-05 03:42:00,
2013-02-04 21:44:00,42.4,41.1,29.90,NW,306,0.0,2.0,95,0.00,,---,0.02,VWS V14.01,2013-02-05 03:44:00,
2013-02-04 21:47:00,42.4,41.1,29.90,NW,306,0.0,2.0,95,0.00,,---,0.02,VWS V14.01,2013-02-05 03:47:00,
2013-02-04 21:49:00,42.4,40.8,29.90,NW,306,0.0,2.0,94,0.00,,---,0.02,VWS V14.01,2013-02-05 03:49:00,
2013-02-04 21:52:00,42.2,40.6,29.90,NW,306,0.0,2.0,94,0.00,,---,0.02,VWS V14.01,2013-02-05 03:52:00,
2013-02-04 21:54:00,42.2,40.9,29.90,NW,306,0.0,2.0,95,0.00,,---,0.02,VWS V14.01,2013-02-05 03:54:00,
2013-02-04 21:57:00,42.2,40.9,29.90,NW,306,0.0,2.0,95,0.00,,---,0.02,VWS V14.01,2013-02-05 03:57:00,
2013-02-04 21:58:00,42.2,40.9,29.90,NW,306,0.0,0.0,95,0.00,,---,0.02,VWS V14.01,2013-02-05 03:58:00,
2013-02-04 21:59:00,42.3,41.0,29.90,NW,306,0.0,0.0,95,0.00,,---,0.02,VWS V14.01,2013-02-05 03:59:00,
2013-02-04 22:00:00,42.2,40.9,29.90,NW,306,0.0,2.0,95,0.00,,---,0.02,VWS V14.01,2013-02-05 04:00:00,
2013-02-04 22:02:00,42.4,41.1,29.90,NW,306,0.0,0.0,95,0.00,,---,0.02,VWS V14.01,2013-02-05 04:02:00,
2013-02-04 22:03:00,42.4,41.1,29.90,NW,306,0.0,0.0,95,0.00,,---,0.02,VWS V14.01,2013-02-05 04:03:00,
2013-02-04 22:05:00,42.4,41.1,29.90,NW,306,0.0,0.0,95,0.00,,---,0.02,VWS V14.01,2013-02-05 04:05:00,
2013-02-04 22:07:00,42.4,41.1,29.91,NW,306,0.0,0.0,95,0.00,,---,0.02,VWS V14.01,2013-02-05 04:07:00,
2013-02-04 22:08:00,42.4,41.1,29.91,NW,306,0.0,0.0,95,0.00,,---,0.02,VWS V14.01,2013-02-05 04:08:00,
2013-02-04 22:10:00,42.4,41.1,29.91,NW,306,0.0,0.0,95,0.00,,---,0.02,VWS V14.01,2013-02-05 04:10:00,
2013-02-04 22:12:00,42.5,41.2,29.91,NW,306,0.0,0.0,95,0.00,,---,0.02,VWS V14.01,2013-02-05 04:12:00,
2013-02-04 22:13:00,42.5,41.2,29.91,NW,306,0.0,0.0,95,0.00,,---,0.02,VWS V14.01,2013-02-05 04:13:00,
2013-02-04 22:16:00,42.4,41.1,29.91,NW,306,0.0,1.0,95,0.00,,---,0.02,VWS V14.01,2013-02-05 04:16:00,
2013-02-04 22:17:00,42.4,41.1,29.91,NW,306,0.0,1.0,95,0.00,,---,0.02,VWS V14.01,2013-02-05 04:17:00,
2013-02-04 22:18:00,42.5,41.2,29.91,NW,306,0.0,1.0,95,0.00,,---,0.02,VWS V14.01,2013-02-05 04:18:00,
2013-02-04 22:21:00,42.6,41.3,29.91,NW,306,0.0,1.0,95,0.00,,---,0.02,VWS V14.01,2013-02-05 04:21:00,
2013-02-04 22:22:00,42.6,41.3,29.91,NW,306,0.0,1.0,95,0.00,,---,0.02,VWS V14.01,2013-02-05 04:22:00,
2013-02-04 22:23:00,42.6,41.3,29.91,NW,306,0.0,1.0,95,0.00,,---,0.02,VWS V14.01,2013-02-05 04:23:00,
2013-02-04 22:26:00,42.4,41.1,29.91,NW,306,0.0,1.0,95,0.00,,---,0.02,VWS V14.01,2013-02-05 04:26:00,
2013-02-04 22:28:00,42.4,41.1,29.91,NW,306,0.0,0.0,95,0.00,,---,0.02,VWS V14.01,2013-02-05 04:28:00,
2013-02-04 22:30:00,42.4,41.1,29.91,NW,306,0.0,1.0,95,0.00,,---,0.02,VWS V14.01,2013-02-05 04:30:00,
2013-02-04 22:31:00,42.3,41.0,29.91,NW,306,0.0,0.0,95,0.00,,---,0.02,VWS V14.01,2013-02-05 04:31:00,
2013-02-04 22:33:00,42.4,41.1,29.91,NW,306,0.0,0.0,95,0.00,,---,0.02,VWS V14.01,2013-02-05 04:33:00,
2013-02-04 22:36:00,42.4,41.1,29.91,NW,306,0.0,0.0,95,0.00,,---,0.02,VWS V14.01,2013-02-05 04:36:00,
2013-02-04 22:38:00,42.5,41.2,29.91,NW,306,1.0,2.0,95,0.00,,---,0.02,VWS V14.01,2013-02-05 04:38:00,
2013-02-04 22:39:00,42.5,41.2,29.91,NW,306,2.0,2.0,95,0.00,,---,0.02,VWS V14.01,2013-02-05 04:39:00,
2013-02-04 22:42:00,42.1,40.8,29.91,NW,306,3.0,3.0,95,0.00,,---,0.02,VWS V14.01,2013-02-05 04:42:00,
2013-02-04 22:43:00,42.1,40.8,29.91,NW,306,1.0,3.0,95,0.00,,---,0.02,VWS V14.01,2013-02-05 04:43:00,
2013-02-04 22:44:00,42.1,40.8,29.91,NW,306,3.0,3.0,95,0.00,,---,0.02,VWS V14.01,2013-02-05 04:44:00,
2013-02-04 22:47:00,42.2,40.9,29.91,NW,317,3.0,5.0,95,0.00,,---,0.02,VWS V14.01,2013-02-05 04:47:00,
2013-02-04 22:49:00,42.3,41.0,29.91,NW,312,4.0,6.0,95,0.00,,---,0.02,VWS V14.01,2013-02-05 04:49:00,
2013-02-04 22:52:00,42.4,41.1,29.92,WNW,297,6.0,9.0,95,0.00,,---,0.02,VWS V14.01,2013-02-05 04:52:00,
2013-02-04 22:54:00,42.2,40.9,29.92,WNW,293,5.0,12.0,95,0.00,,---,0.02,VWS V14.01,2013-02-05 04:54:00,
2013-02-04 22:57:00,42.1,40.5,29.92,WNW,300,6.0,12.0,94,0.00,,---,0.02,VWS V14.01,2013-02-05 04:57:00,
2013-02-04 22:59:00,42.0,39.8,29.92,NNW,339,10.0,11.0,92,0.00,,---,0.02,VWS V14.01,2013-02-05 04:59:00,
2013-02-04 23:00:00,42.0,39.6,29.92,NW,325,10.0,11.0,91,0.00,,---,0.02,VWS V14.01,2013-02-05 05:00:00,
2013-02-04 23:05:00,42.2,38.3,29.92,NW,317,5.0,11.0,86,0.00,,---,0.02,VWS V14.01,2013-02-05 05:05:00,
2013-02-04 23:10:00,42.3,37.5,29.92,NNW,335,10.0,13.0,83,0.00,,---,0.02,VWS V14.01,2013-02-05 05:10:00,
2013-02-04 23:15:00,42.2,37.1,29.92,NW,325,5.0,14.0,82,0.00,,---,0.02,VWS V14.01,2013-02-05 05:15:00,
2013-02-04 23:16:00,42.2,36.8,29.92,NW,325,4.0,14.0,81,0.00,,---,0.02,VWS V14.01,2013-02-05 05:16:00,
2013-02-04 23:20:00,42.0,36.3,29.92,WNW,296,13.0,14.0,80,0.00,,---,0.02,VWS V14.01,2013-02-05 05:20:00,
2013-02-04 23:21:00,42.0,36.0,29.92,NW,314,8.0,14.0,79,0.00,,---,0.02,VWS V14.01,2013-02-05 05:21:00,
2013-02-04 23:25:00,41.8,35.5,29.92,NW,310,5.0,14.0,78,0.00,,---,0.02,VWS V14.01,2013-02-05 05:25:00,
2013-02-04 23:26:00,41.7,35.7,29.92,NW,316,4.0,14.0,79,0.00,,---,0.02,VWS V14.01,2013-02-05 05:26:00,
2013-02-04 23:30:00,41.4,35.1,29.92,NW,320,9.0,12.0,78,0.00,,---,0.02,VWS V14.01,2013-02-05 05:30:00,
2013-02-04 23:31:00,41.4,35.1,29.92,NNW,344,10.0,12.0,78,0.00,,---,0.02,VWS V14.01,2013-02-05 05:31:00,
2013-02-04 23:35:00,41.1,34.5,29.92,WNW,293,10.0,12.0,77,0.00,,---,0.02,VWS V14.01,2013-02-05 05:35:00,
2013-02-04 23:36:00,41.1,34.5,29.92,NW,309,6.0,12.0,77,0.00,,---,0.02,VWS V14.01,2013-02-05 05:36:00,
2013-02-04 23:37:00,41.0,34.3,29.92,NW,320,9.0,13.0,77,0.00,,---,0.02,VWS V14.01,2013-02-05 05:37:00,
2013-02-04 23:41:00,40.7,33.4,29.92,NW,304,9.0,13.0,75,0.00,,---,0.02,VWS V14.01,2013-02-05 05:41:00,
2013-02-04 23:42:00,40.6,33.3,29.92,NW,314,6.0,13.0,75,0.00,,---,0.02,VWS V14.01,2013-02-05 05:42:00,
2013-02-04 23:46:00,40.3,33.3,29.92,NW,325,5.0,13.0,76,0.00,,---,0.02,VWS V14.01,2013-02-05 05:46:00,
2013-02-04 23:47:00,40.1,33.2,29.92,NW,325,5.0,13.0,76,0.00,,---,0.02,VWS V14.01,2013-02-05 05:47:00,
2013-02-04 23:51:00,39.6,33.0,29.92,WNW,301,3.0,13.0,77,0.00,,---,0.02,VWS V14.01,2013-02-05 05:51:00,
2013-02-04 23:52:00,39.5,32.9,29.92,NW,316,5.0,13.0,77,0.00,,---,0.02,VWS V14.01,2013-02-05 05:52:00,
2013-02-04 23:56:00,39.0,32.7,29.92,NW,320,10.0,13.0,78,0.00,,---,0.02,VWS V14.01,2013-02-05 05:56:00,
2013-02-04 23:57:00,38.9,32.6,29.92,WNW,289,9.0,13.0,78,0.00,,---,0.02,VWS V14.01,2013-02-05 05:57:00,